Time,TemperatureF,DewpointF,PressureIn,WindDirection,WindDirectionDegrees,WindSpeedMPH,WindSpeedGustMPH,Humidity,HourlyPrecipIn,Conditions,Clouds,dailyrainin,SoftwareType,DateUTC
2013-10-19 00:00:00,53.3,43.7,29.99,North,0,0.0,0.0,70,0.00,,,0.00,WUHU216HW,2013-10-19 04:00:00,
2013-10-19 00:01:00,53.3,43.7,29.99,North,0,0.0,0.0,70,0.00,,,0.00,WUHU216HW,2013-10-19 04:01:00,
2013-10-19 00:06:00,53.1,43.7,29.99,North,0,0.0,0.0,70,0.00,,,0.00,WUHU216HW,2013-10-19 04:06:00,
2013-10-19 00:11:00,52.9,43.5,29.99,North,0,0.0,0.0,70,0.00,,,0.00,WUHU216HW,2013-10-19 04:11:00,
2013-10-19 00:12:00,52.9,43.5,29.98,North,0,0.0,0.0,70,0.00,,,0.00,WUHU216HW,2013-10-19 04:12:00,
2013-10-19 00:16:00,52.9,43.5,29.98,North,0,0.0,0.0,70,0.00,,,0.00,WUHU216HW,2013-10-19 04:16:00,
2013-10-19 00:17:00,52.9,43.5,29.98,North,0,0.0,0.0,70,0.00,,,0.00,WUHU216HW,2013-10-19 04:17:00,
2013-10-19 00:21:00,52.9,43.8,29.98,North,0,0.0,0.0,71,0.00,,,0.00,WUHU216HW,2013-10-19 04:21:00,
2013-10-19 00:22:00,52.9,43.8,29.98,North,0,0.0,0.0,71,0.00,,,0.00,WUHU216HW,2013-10-19 04:22:00,
2013-10-19 00:26:00,52.9,43.8,29.98,North,0,0.0,0.0,71,0.00,,,0.00,WUHU216HW,2013-10-19 04:26:00,
2013-10-19 00:27:00,52.9,43.8,29.98,North,0,0.0,0.0,71,0.00,,,0.00,WUHU216HW,2013-10-19 04:27:00,
2013-10-19 00:28:00,52.9,43.8,29.98,North,0,0.0,0.0,71,0.00,,,0.00,WUHU216HW,2013-10-19 04:28:00,
2013-10-19 00:31:00,52.9,43.8,29.99,North,0,0.0,0.0,71,0.00,,,0.00,WUHU216HW,2013-10-19 04:31:00,
2013-10-19 00:32:00,52.9,43.8,29.99,North,0,0.0,0.0,71,0.00,,,0.00,WUHU216HW,2013-10-19 04:32:00,
2013-10-19 00:33:00,52.9,43.8,29.99,North,0,0.0,0.0,71,0.00,,,0.00,WUHU216HW,2013-10-19 04:33:00,
2013-10-19 00:35:00,52.7,43.7,29.99,North,0,0.0,0.0,71,0.00,,,0.00,WUHU216HW,2013-10-19 04:35:00,
2013-10-19 00:36:00,52.7,43.7,29.99,North,0,0.0,0.0,71,0.00,,,0.00,WUHU216HW,2013-10-19 04:36:00,
2013-10-19 00:37:00,52.7,43.7,29.99,North,0,0.0,0.0,71,0.00,,,0.00,WUHU216HW,2013-10-19 04:37:00,
2013-10-19 00:38:00,52.7,43.7,29.99,North,0,0.0,0.0,71,0.00,,,0.00,WUHU216HW,2013-10-19 04:38:00,
2013-10-19 00:40:00,52.7,43.7,29.99,North,0,0.0,0.0,71,0.00,,,0.00,WUHU216HW,2013-10-19 04:40:00,
2013-10-19 00:41:00,52.6,43.5,29.99,North,0,0.0,0.0,71,0.00,,,0.00,WUHU216HW,2013-10-19 04:41:00,
2013-10-19 00:42:00,52.7,43.7,29.99,North,0,0.0,0.0,71,0.00,,,0.00,WUHU216HW,2013-10-19 04:42:00,
2013-10-19 00:43:00,52.6,43.5,29.99,North,0,0.0,0.0,71,0.00,,,0.00,WUHU216HW,2013-10-19 04:43:00,
2013-10-19 00:45:00,52.6,43.5,29.99,North,0,0.0,0.0,71,0.00,,,0.00,WUHU216HW,2013-10-19 04:45:00,
2013-10-19 00:46:00,52.6,43.5,29.99,North,0,0.0,0.0,71,0.00,,,0.00,WUHU216HW,2013-10-19 04:46:00,
2013-10-19 00:47:00,52.6,43.5,29.99,North,0,0.0,0.0,71,0.00,,,0.00,WUHU216HW,2013-10-19 04:47:00,
2013-10-19 00:49:00,52.6,43.5,29.99,North,0,0.0,0.0,71,0.00,,,0.00,WUHU216HW,2013-10-19 04:49:00,
2013-10-19 00:51:00,52.6,43.5,29.99,North,0,0.0,0.0,71,0.00,,,0.00,WUHU216HW,2013-10-19 04:51:00,
2013-10-19 00:52:00,52.4,43.3,29.99,North,0,0.0,0.0,71,0.00,,,0.00,WUHU216HW,2013-10-19 04:52:00,
2013-10-19 00:54:00,52.4,43.3,29.99,North,0,0.0,0.0,71,0.00,,,0.00,WUHU216HW,2013-10-19 04:54:00,
2013-10-19 00:56:00,52.2,43.1,29.99,North,0,0.0,0.0,71,0.00,,,0.00,WUHU216HW,2013-10-19 04:56:00,
2013-10-19 00:57:00,52.2,43.1,29.99,North,0,0.0,0.0,71,0.00,,,0.00,WUHU216HW,2013-10-19 04:57:00,
2013-10-19 00:59:00,52.2,43.1,29.99,North,0,0.0,0.0,71,0.00,,,0.00,WUHU216HW,2013-10-19 04:59:00,
2013-10-19 01:02:00,52.2,43.1,29.99,North,0,0.0,0.0,71,0.00,,,0.00,WUHU216HW,2013-10-19 05:02:00,
2013-10-19 01:03:00,52.0,43.0,29.99,North,0,0.0,0.0,71,0.00,,,0.00,WUHU216HW,2013-10-19 05:03:00,
2013-10-19 01:04:00,52.0,43.0,29.99,North,0,0.0,0.0,71,0.00,,,0.00,WUHU216HW,2013-10-19 05:04:00,
2013-10-19 01:07:00,51.8,42.5,29.99,North,0,0.0,0.0,70,0.00,,,0.00,WUHU216HW,2013-10-19 05:07:00,
2013-10-19 01:08:00,51.8,42.5,29.99,North,0,0.0,0.0,70,0.00,,,0.00,WUHU216HW,2013-10-19 05:08:00,
2013-10-19 01:09:00,51.8,42.5,29.99,North,0,0.0,0.0,70,0.00,,,0.00,WUHU216HW,2013-10-19 05:09:00,
2013-10-19 01:12:00,51.8,42.5,29.99,North,0,0.0,0.0,70,0.00,,,0.00,WUHU216HW,2013-10-19 05:12:00,
2013-10-19 01:13:00,51.8,42.5,29.99,North,0,0.0,0.0,70,0.00,,,0.00,WUHU216HW,2013-10-19 05:13:00,
2013-10-19 01:14:00,51.8,42.5,29.99,North,0,0.0,0.0,70,0.00,,,0.00,WUHU216HW,2013-10-19 05:14:00,
2013-10-19 01:15:00,51.8,42.9,29.99,North,0,0.0,0.0,71,0.00,,,0.00,WUHU216HW,2013-10-19 05:15:00,
2013-10-19 01:17:00,51.8,42.9,29.99,North,0,0.0,0.0,71,0.00,,,0.00,WUHU216HW,2013-10-19 05:17:00,
2013-10-19 01:18:00,51.8,42.9,29.99,North,0,0.0,0.0,71,0.00,,,0.00,WUHU216HW,2013-10-19 05:18:00,
2013-10-19 01:20:00,51.8,42.9,29.99,North,0,0.0,0.0,71,0.00,,,0.00,WUHU216HW,2013-10-19 05:20:00,
2013-10-19 01:21:00,51.7,42.3,29.99,North,0,0.0,0.0,70,0.00,,,0.00,WUHU216HW,2013-10-19 05:21:00,
2013-10-19 01:22:00,51.7,42.7,29.99,North,0,0.0,0.0,71,0.00,,,0.00,WUHU216HW,2013-10-19 05:22:00,
2013-10-19 01:23:00,51.7,42.7,29.99,North,0,0.0,0.0,71,0.00,,,0.00,WUHU216HW,2013-10-19 05:23:00,
2013-10-19 01:25:00,51.7,42.7,29.99,North,0,0.0,0.0,71,0.00,,,0.00,WUHU216HW,2013-10-19 05:25:00,
2013-10-19 01:26:00,51.7,42.7,29.99,North,0,0.0,0.0,71,0.00,,,0.00,WUHU216HW,2013-10-19 05:26:00,
2013-10-19 01:28:00,51.7,42.7,29.99,North,0,0.0,0.0,71,0.00,,,0.00,WUHU216HW,2013-10-19 05:28:00,
2013-10-19 01:31:00,51.7,42.7,29.99,North,0,0.0,0.0,71,0.00,,,0.00,WUHU216HW,2013-10-19 05:31:00,
2013-10-19 01:33:00,51.7,42.7,29.99,North,0,0.0,0.0,71,0.00,,,0.00,WUHU216HW,2013-10-19 05:33:00,
2013-10-19 01:34:00,51.7,42.7,29.99,North,0,0.0,0.0,71,0.00,,,0.00,WUHU216HW,2013-10-19 05:34:00,
2013-10-19 01:36:00,51.5,42.5,29.99,North,0,0.0,0.0,71,0.00,,,0.00,WUHU216HW,2013-10-19 05:36:00,
2013-10-19 01:38:00,51.5,42.5,29.99,North,0,0.0,0.0,71,0.00,,,0.00,WUHU216HW,2013-10-19 05:38:00,
2013-10-19 01:40:00,51.5,42.5,29.99,North,0,0.0,0.0,71,0.00,,,0.00,WUHU216HW,2013-10-19 05:40:00,
2013-10-19 01:41:00,51.5,42.5,29.99,North,0,0.0,0.0,71,0.00,,,0.00,WUHU216HW,2013-10-19 05:41:00,
2013-10-19 01:43:00,51.3,42.3,29.99,North,0,0.0,0.0,71,0.00,,,0.00,WUHU216HW,2013-10-19 05:43:00,
2013-10-19 01:44:00,51.3,42.3,29.99,North,0,0.0,0.0,71,0.00,,,0.00,WUHU216HW,2013-10-19 05:44:00,
2013-10-19 01:46:00,51.1,42.1,29.99,North,0,0.0,0.0,71,0.00,,,0.00,WUHU216HW,2013-10-19 05:46:00,
2013-10-19 01:48:00,51.1,42.1,29.99,North,0,0.0,0.0,71,0.00,,,0.00,WUHU216HW,2013-10-19 05:48:00,
2013-10-19 01:49:00,51.1,42.1,29.99,North,0,0.0,0.0,71,0.00,,,0.00,WUHU216HW,2013-10-19 05:49:00,
2013-10-19 01:51:00,51.3,42.3,29.99,North,0,0.0,0.0,71,0.00,,,0.00,WUHU216HW,2013-10-19 05:51:00,
2013-10-19 01:52:00,51.3,42.3,29.99,North,0,0.0,0.0,71,0.00,,,0.00,WUHU216HW,2013-10-19 05:52:00,
2013-10-19 01:53:00,51.3,42.3,29.99,North,0,0.0,0.0,71,0.00,,,0.00,WUHU216HW,2013-10-19 05:53:00,
2013-10-19 01:54:00,51.1,42.1,29.99,North,0,0.0,0.0,71,0.00,,,0.00,WUHU216HW,2013-10-19 05:54:00,
2013-10-19 01:56:00,51.1,42.1,29.98,North,0,0.0,0.0,71,0.00,,,0.00,WUHU216HW,2013-10-19 05:56:00,
2013-10-19 01:57:00,51.1,42.1,29.99,North,0,0.0,0.0,71,0.00,,,0.00,WUHU216HW,2013-10-19 05:57:00,
2013-10-19 01:58:00,51.1,42.1,29.99,North,0,0.0,0.0,71,0.00,,,0.00,WUHU216HW,2013-10-19 05:58:00,
2013-10-19 01:59:00,51.1,42.1,29.99,North,0,0.0,0.0,71,0.00,,,0.00,WUHU216HW,2013-10-19 05:59:00,
2013-10-19 02:02:00,50.9,42.0,29.99,North,0,0.0,0.0,71,0.00,,,0.00,WUHU216HW,2013-10-19 06:02:00,
2013-10-19 02:03:00,50.8,41.8,29.99,North,0,0.0,0.0,71,0.00,,,0.00,WUHU216HW,2013-10-19 06:03:00,
2013-10-19 02:04:00,50.8,41.8,29.99,North,0,0.0,0.0,71,0.00,,,0.00,WUHU216HW,2013-10-19 06:04:00,
2013-10-19 02:05:00,50.8,41.8,29.99,North,0,0.0,0.0,71,0.00,,,0.00,WUHU216HW,2013-10-19 06:05:00,
2013-10-19 02:07:00,50.8,41.8,29.99,North,0,0.0,0.0,71,0.00,,,0.00,WUHU216HW,2013-10-19 06:07:00,
2013-10-19 02:08:00,50.6,41.6,29.99,North,0,0.0,0.0,71,0.00,,,0.00,WUHU216HW,2013-10-19 06:08:00,
2013-10-19 02:09:00,50.4,41.4,29.99,North,0,0.0,0.0,71,0.00,,,0.00,WUHU216HW,2013-10-19 06:09:00,
2013-10-19 02:10:00,50.4,41.4,29.99,North,0,0.0,0.0,71,0.00,,,0.00,WUHU216HW,2013-10-19 06:10:00,
2013-10-19 02:13:00,50.2,41.2,29.99,North,0,0.0,0.0,71,0.00,,,0.00,WUHU216HW,2013-10-19 06:13:00,
2013-10-19 02:15:00,50.2,41.6,29.99,North,0,0.0,0.0,72,0.00,,,0.00,WUHU216HW,2013-10-19 06:15:00,
2013-10-19 02:18:00,50.2,41.6,29.99,North,0,0.0,0.0,72,0.00,,,0.00,WUHU216HW,2013-10-19 06:18:00,
2013-10-19 02:20:00,50.4,41.8,29.99,North,0,0.0,0.0,72,0.00,,,0.00,WUHU216HW,2013-10-19 06:20:00,
2013-10-19 02:23:00,50.4,42.0,29.99,North,0,0.0,0.0,73,0.00,,,0.00,WUHU216HW,2013-10-19 06:23:00,
2013-10-19 02:25:00,50.4,42.0,29.99,North,0,0.0,0.0,73,0.00,,,0.00,WUHU216HW,2013-10-19 06:25:00,
2013-10-19 02:28:00,50.4,42.0,29.99,North,0,0.0,0.0,73,0.00,,,0.00,WUHU216HW,2013-10-19 06:28:00,
2013-10-19 02:29:00,50.4,42.0,29.99,North,0,0.0,0.0,73,0.00,,,0.00,WUHU216HW,2013-10-19 06:29:00,
2013-10-19 02:30:00,50.4,42.0,29.99,North,0,0.0,0.0,73,0.00,,,0.00,WUHU216HW,2013-10-19 06:30:00,
2013-10-19 02:31:00,50.4,42.0,29.99,North,0,0.0,0.0,73,0.00,,,0.00,WUHU216HW,2013-10-19 06:31:00,
2013-10-19 02:33:00,50.2,41.9,29.99,North,0,0.0,0.0,73,0.00,,,0.00,WUHU216HW,2013-10-19 06:33:00,
2013-10-19 02:34:00,50.2,41.9,29.99,North,0,0.0,0.0,73,0.00,,,0.00,WUHU216HW,2013-10-19 06:34:00,
2013-10-19 02:35:00,50.2,41.9,29.99,North,0,0.0,0.0,73,0.00,,,0.00,WUHU216HW,2013-10-19 06:35:00,
2013-10-19 02:36:00,50.2,41.9,29.99,North,0,0.0,0.0,73,0.00,,,0.00,WUHU216HW,2013-10-19 06:36:00,
2013-10-19 02:37:00,50.2,41.9,29.99,North,0,0.0,0.0,73,0.00,,,0.00,WUHU216HW,2013-10-19 06:37:00,
2013-10-19 02:38:00,50.2,41.9,29.99,North,0,0.0,0.0,73,0.00,,,0.00,WUHU216HW,2013-10-19 06:38:00,
2013-10-19 02:39:00,50.2,41.9,29.99,North,0,0.0,0.0,73,0.00,,,0.00,WUHU216HW,2013-10-19 06:39:00,
2013-10-19 02:40:00,50.2,41.9,29.99,North,0,0.0,0.0,73,0.00,,,0.00,WUHU216HW,2013-10-19 06:40:00,
2013-10-19 02:41:00,50.2,41.9,29.99,North,0,0.0,0.0,73,0.00,,,0.00,WUHU216HW,2013-10-19 06:41:00,
2013-10-19 02:43:00,50.0,41.7,29.99,North,0,0.0,0.0,73,0.00,,,0.00,WUHU216HW,2013-10-19 06:43:00,
2013-10-19 02:44:00,50.0,41.7,29.99,North,0,0.0,0.0,73,0.00,,,0.00,WUHU216HW,2013-10-19 06:44:00,
2013-10-19 02:46:00,50.0,41.7,29.99,North,0,0.0,0.0,73,0.00,,,0.00,WUHU216HW,2013-10-19 06:46:00,
2013-10-19 02:48:00,49.9,41.5,29.99,North,0,0.0,0.0,73,0.00,,,0.00,WUHU216HW,2013-10-19 06:48:00,
2013-10-19 02:49:00,49.9,41.5,29.99,North,0,0.0,0.0,73,0.00,,,0.00,WUHU216HW,2013-10-19 06:49:00,
2013-10-19 02:50:00,49.9,41.5,29.99,North,0,0.0,0.0,73,0.00,,,0.00,WUHU216HW,2013-10-19 06:50:00,
2013-10-19 02:51:00,49.9,41.5,29.99,North,0,0.0,0.0,73,0.00,,,0.00,WUHU216HW,2013-10-19 06:51:00,
2013-10-19 02:53:00,49.9,41.9,29.99,North,0,0.0,0.0,74,0.00,,,0.00,WUHU216HW,2013-10-19 06:53:00,
2013-10-19 02:55:00,49.9,41.9,29.99,North,0,0.0,0.0,74,0.00,,,0.00,WUHU216HW,2013-10-19 06:55:00,
2013-10-19 02:56:00,49.7,41.7,29.99,North,0,0.0,0.0,74,0.00,,,0.00,WUHU216HW,2013-10-19 06:56:00,
2013-10-19 02:57:00,49.9,41.9,29.99,North,0,0.0,0.0,74,0.00,,,0.00,WUHU216HW,2013-10-19 06:57:00,
2013-10-19 02:59:00,49.7,41.7,29.99,North,0,0.0,0.0,74,0.00,,,0.00,WUHU216HW,2013-10-19 06:59:00,
2013-10-19 03:00:00,49.7,41.7,29.99,North,0,0.0,0.0,74,0.00,,,0.00,WUHU216HW,2013-10-19 07:00:00,
2013-10-19 03:01:00,49.7,41.7,29.99,North,0,0.0,0.0,74,0.00,,,0.00,WUHU216HW,2013-10-19 07:01:00,
2013-10-19 03:02:00,49.7,41.7,29.98,North,0,0.0,0.0,74,0.00,,,0.00,WUHU216HW,2013-10-19 07:02:00,
2013-10-19 03:04:00,49.7,41.7,29.98,North,0,0.0,0.0,74,0.00,,,0.00,WUHU216HW,2013-10-19 07:04:00,
2013-10-19 03:05:00,49.7,41.7,29.98,North,0,0.0,0.0,74,0.00,,,0.00,WUHU216HW,2013-10-19 07:05:00,
2013-10-19 03:06:00,49.7,42.0,29.98,North,0,0.0,0.0,75,0.00,,,0.00,WUHU216HW,2013-10-19 07:06:00,
2013-10-19 03:07:00,49.7,42.0,29.99,North,0,0.0,0.0,75,0.00,,,0.00,WUHU216HW,2013-10-19 07:07:00,
2013-10-19 03:09:00,49.7,42.0,29.99,North,0,0.0,0.0,75,0.00,,,0.00,WUHU216HW,2013-10-19 07:09:00,
2013-10-19 03:10:00,49.9,42.2,29.99,North,0,0.0,0.0,75,0.00,,,0.00,WUHU216HW,2013-10-19 07:10:00,
2013-10-19 03:12:00,49.7,42.0,29.99,North,0,0.0,0.0,75,0.00,,,0.00,WUHU216HW,2013-10-19 07:12:00,
2013-10-19 03:14:00,49.7,42.0,29.99,North,0,0.0,0.0,75,0.00,,,0.00,WUHU216HW,2013-10-19 07:14:00,
2013-10-19 03:15:00,49.7,42.0,29.99,North,0,0.0,0.0,75,0.00,,,0.00,WUHU216HW,2013-10-19 07:15:00,
2013-10-19 03:17:00,49.5,41.9,29.99,North,0,0.0,0.0,75,0.00,,,0.00,WUHU216HW,2013-10-19 07:17:00,
2013-10-19 03:18:00,49.5,41.9,29.99,North,0,0.0,0.0,75,0.00,,,0.00,WUHU216HW,2013-10-19 07:18:00,
2013-10-19 03:19:00,49.5,41.9,29.99,North,0,0.0,0.0,75,0.00,,,0.00,WUHU216HW,2013-10-19 07:19:00,
2013-10-19 03:21:00,49.5,41.9,29.98,North,0,0.0,0.0,75,0.00,,,0.00,WUHU216HW,2013-10-19 07:21:00,
2013-10-19 03:22:00,49.5,41.9,29.98,North,0,0.0,0.0,75,0.00,,,0.00,WUHU216HW,2013-10-19 07:22:00,
2013-10-19 03:23:00,49.5,41.9,29.98,North,0,0.0,0.0,75,0.00,,,0.00,WUHU216HW,2013-10-19 07:23:00,
2013-10-19 03:24:00,49.5,41.9,29.98,North,0,0.0,0.0,75,0.00,,,0.00,WUHU216HW,2013-10-19 07:24:00,
2013-10-19 03:26:00,49.5,41.9,29.99,North,0,0.0,0.0,75,0.00,,,0.00,WUHU216HW,2013-10-19 07:26:00,
2013-10-19 03:28:00,49.5,41.9,29.99,North,0,0.0,0.0,75,0.00,,,0.00,WUHU216HW,2013-10-19 07:28:00,
2013-10-19 03:29:00,49.3,41.7,29.99,North,0,0.0,0.0,75,0.00,,,0.00,WUHU216HW,2013-10-19 07:29:00,
2013-10-19 03:31:00,49.3,41.7,29.99,North,0,0.0,0.0,75,0.00,,,0.00,WUHU216HW,2013-10-19 07:31:00,
2013-10-19 03:32:00,49.3,41.7,29.99,North,0,0.0,0.0,75,0.00,,,0.00,WUHU216HW,2013-10-19 07:32:00,
2013-10-19 03:33:00,49.3,41.7,29.98,North,0,0.0,0.0,75,0.00,,,0.00,WUHU216HW,2013-10-19 07:33:00,
2013-10-19 03:34:00,49.3,41.7,29.98,North,0,0.0,0.0,75,0.00,,,0.00,WUHU216HW,2013-10-19 07:34:00,
2013-10-19 03:35:00,49.3,41.7,29.98,North,0,0.0,0.0,75,0.00,,,0.00,WUHU216HW,2013-10-19 07:35:00,
2013-10-19 03:36:00,49.1,41.5,29.98,North,0,0.0,0.0,75,0.00,,,0.00,WUHU216HW,2013-10-19 07:36:00,
2013-10-19 03:37:00,49.1,41.5,29.98,North,0,0.0,0.0,75,0.00,,,0.00,WUHU216HW,2013-10-19 07:37:00,
2013-10-19 03:38:00,49.0,41.3,29.98,North,0,0.0,0.0,75,0.00,,,0.00,WUHU216HW,2013-10-19 07:38:00,
2013-10-19 03:39:00,49.0,41.3,29.98,North,0,0.0,0.0,75,0.00,,,0.00,WUHU216HW,2013-10-19 07:39:00,
2013-10-19 03:41:00,49.0,41.7,29.98,North,0,0.0,0.0,76,0.00,,,0.00,WUHU216HW,2013-10-19 07:41:00,
2013-10-19 03:42:00,49.0,41.7,29.98,North,0,0.0,0.0,76,0.00,,,0.00,WUHU216HW,2013-10-19 07:42:00,
2013-10-19 03:43:00,49.0,41.7,29.98,North,0,0.0,0.0,76,0.00,,,0.00,WUHU216HW,2013-10-19 07:43:00,
2013-10-19 03:44:00,48.8,41.5,29.98,North,0,0.0,0.0,76,0.00,,,0.00,WUHU216HW,2013-10-19 07:44:00,
2013-10-19 03:45:00,49.0,41.7,29.98,North,0,0.0,0.0,76,0.00,,,0.00,WUHU216HW,2013-10-19 07:45:00,
2013-10-19 03:47:00,48.8,41.5,29.98,North,0,0.0,0.0,76,0.00,,,0.00,WUHU216HW,2013-10-19 07:47:00,
2013-10-19 03:49:00,48.8,41.5,29.98,North,0,0.0,0.0,76,0.00,,,0.00,WUHU216HW,2013-10-19 07:49:00,
2013-10-19 03:51:00,48.6,41.3,29.98,North,0,0.0,0.0,76,0.00,,,0.00,WUHU216HW,2013-10-19 07:51:00,
2013-10-19 03:52:00,48.6,41.3,29.98,North,0,0.0,0.0,76,0.00,,,0.00,WUHU216HW,2013-10-19 07:52:00,
2013-10-19 03:53:00,48.6,41.3,29.98,North,0,0.0,0.0,76,0.00,,,0.00,WUHU216HW,2013-10-19 07:53:00,
2013-10-19 03:54:00,48.6,41.3,29.99,North,0,0.0,0.0,76,0.00,,,0.00,WUHU216HW,2013-10-19 07:54:00,
2013-10-19 03:56:00,48.6,41.3,29.99,North,0,0.0,0.0,76,0.00,,,0.00,WUHU216HW,2013-10-19 07:56:00,
2013-10-19 03:57:00,48.6,41.7,29.98,North,0,0.0,0.0,77,0.00,,,0.00,WUHU216HW,2013-10-19 07:57:00,
2013-10-19 03:58:00,48.6,41.7,29.98,North,0,0.0,0.0,77,0.00,,,0.00,WUHU216HW,2013-10-19 07:58:00,
2013-10-19 03:59:00,48.6,41.7,29.98,North,0,0.0,0.0,77,0.00,,,0.00,WUHU216HW,2013-10-19 07:59:00,
2013-10-19 04:01:00,48.8,41.9,29.99,North,0,0.0,0.0,77,0.00,,,0.00,WUHU216HW,2013-10-19 08:01:00,
2013-10-19 04:02:00,48.8,41.9,29.98,North,0,0.0,0.0,77,0.00,,,0.00,WUHU216HW,2013-10-19 08:02:00,
2013-10-19 04:03:00,48.8,41.9,29.99,North,0,0.0,0.0,77,0.00,,,0.00,WUHU216HW,2013-10-19 08:03:00,
2013-10-19 04:04:00,48.8,42.1,29.99,North,0,0.0,0.0,78,0.00,,,0.00,WUHU216HW,2013-10-19 08:04:00,
2013-10-19 04:06:00,49.0,42.3,29.99,North,0,0.0,0.0,78,0.00,,,0.00,WUHU216HW,2013-10-19 08:06:00,
2013-10-19 04:07:00,49.1,42.5,29.99,North,0,0.0,0.0,78,0.00,,,0.00,WUHU216HW,2013-10-19 08:07:00,
2013-10-19 04:09:00,49.1,42.5,29.98,North,0,0.0,0.0,78,0.00,,,0.00,WUHU216HW,2013-10-19 08:09:00,
2013-10-19 04:11:00,49.3,42.7,29.98,North,0,0.0,0.0,78,0.00,,,0.00,WUHU216HW,2013-10-19 08:11:00,
2013-10-19 04:12:00,49.3,42.7,29.98,North,0,0.0,0.0,78,0.00,,,0.00,WUHU216HW,2013-10-19 08:12:00,
2013-10-19 04:14:00,49.3,42.7,29.98,North,0,0.0,0.0,78,0.00,,,0.00,WUHU216HW,2013-10-19 08:14:00,
2013-10-19 04:16:00,49.3,42.7,29.98,North,0,0.0,0.0,78,0.00,,,0.00,WUHU216HW,2013-10-19 08:16:00,
2013-10-19 04:17:00,49.3,42.7,29.98,North,0,0.0,0.0,78,0.00,,,0.00,WUHU216HW,2013-10-19 08:17:00,
2013-10-19 04:19:00,49.1,42.5,29.98,North,0,0.0,0.0,78,0.00,,,0.00,WUHU216HW,2013-10-19 08:19:00,
2013-10-19 04:20:00,49.1,42.5,29.98,North,0,0.0,0.0,78,0.00,,,0.00,WUHU216HW,2013-10-19 08:20:00,
2013-10-19 04:22:00,49.0,42.3,29.98,North,0,0.0,0.0,78,0.00,,,0.00,WUHU216HW,2013-10-19 08:22:00,
2013-10-19 04:23:00,49.0,42.3,29.98,North,0,0.0,0.0,78,0.00,,,0.00,WUHU216HW,2013-10-19 08:23:00,
2013-10-19 04:24:00,49.0,42.3,29.98,North,0,0.0,0.0,78,0.00,,,0.00,WUHU216HW,2013-10-19 08:24:00,
2013-10-19 04:25:00,49.0,42.3,29.98,North,0,0.0,0.0,78,0.00,,,0.00,WUHU216HW,2013-10-19 08:25:00,
2013-10-19 04:27:00,48.8,42.1,29.98,North,0,0.0,0.0,78,0.00,,,0.00,WUHU216HW,2013-10-19 08:27:00,
2013-10-19 04:28:00,48.8,42.1,29.98,North,0,0.0,0.0,78,0.00,,,0.00,WUHU216HW,2013-10-19 08:28:00,
2013-10-19 04:30:00,48.6,41.9,29.98,North,0,0.0,0.0,78,0.00,,,0.00,WUHU216HW,2013-10-19 08:30:00,
2013-10-19 04:32:00,48.6,41.9,29.98,North,0,0.0,0.0,78,0.00,,,0.00,WUHU216HW,2013-10-19 08:32:00,
2013-10-19 04:33:00,48.6,41.9,29.98,North,0,0.0,0.0,78,0.00,,,0.00,WUHU216HW,2013-10-19 08:33:00,
2013-10-19 04:35:00,48.6,41.9,29.98,North,0,0.0,0.0,78,0.00,,,0.00,WUHU216HW,2013-10-19 08:35:00,
2013-10-19 04:37:00,48.4,41.8,29.98,North,0,0.0,0.0,78,0.00,,,0.00,WUHU216HW,2013-10-19 08:37:00,
2013-10-19 04:38:00,48.2,41.6,29.98,North,0,0.0,0.0,78,0.00,,,0.00,WUHU216HW,2013-10-19 08:38:00,
2013-10-19 04:40:00,48.2,41.6,29.98,North,0,0.0,0.0,78,0.00,,,0.00,WUHU216HW,2013-10-19 08:40:00,
2013-10-19 04:41:00,48.2,41.6,29.98,North,0,0.0,0.0,78,0.00,,,0.00,WUHU216HW,2013-10-19 08:41:00,
2013-10-19 04:42:00,48.2,41.6,29.99,North,0,0.0,0.0,78,0.00,,,0.00,WUHU216HW,2013-10-19 08:42:00,
2013-10-19 04:43:00,48.1,41.5,29.99,North,0,0.0,0.0,78,0.00,,,0.00,WUHU216HW,2013-10-19 08:43:00,
2013-10-19 04:45:00,48.1,41.5,29.99,North,0,0.0,0.0,78,0.00,,,0.00,WUHU216HW,2013-10-19 08:45:00,
2013-10-19 04:46:00,48.1,41.5,29.99,North,0,0.0,0.0,78,0.00,,,0.00,WUHU216HW,2013-10-19 08:46:00,
2013-10-19 04:47:00,48.1,41.5,29.99,North,0,0.0,0.0,78,0.00,,,0.00,WUHU216HW,2013-10-19 08:47:00,
2013-10-19 04:48:00,48.2,41.9,29.99,North,0,0.0,0.0,79,0.00,,,0.00,WUHU216HW,2013-10-19 08:48:00,
2013-10-19 04:49:00,48.2,41.9,29.99,North,0,0.0,0.0,79,0.00,,,0.00,WUHU216HW,2013-10-19 08:49:00,
2013-10-19 04:50:00,48.2,41.9,29.99,North,0,0.0,0.0,79,0.00,,,0.00,WUHU216HW,2013-10-19 08:50:00,
2013-10-19 04:51:00,48.2,41.9,29.98,North,0,0.0,0.0,79,0.00,,,0.00,WUHU216HW,2013-10-19 08:51:00,
2013-10-19 04:53:00,48.4,42.1,29.98,North,0,0.0,0.0,79,0.00,,,0.00,WUHU216HW,2013-10-19 08:53:00,
2013-10-19 04:54:00,48.4,42.1,29.98,North,0,0.0,0.0,79,0.00,,,0.00,WUHU216HW,2013-10-19 08:54:00,
2013-10-19 04:55:00,48.4,42.1,29.98,North,0,0.0,0.0,79,0.00,,,0.00,WUHU216HW,2013-10-19 08:55:00,
2013-10-19 04:56:00,48.4,42.1,29.98,North,0,0.0,0.0,79,0.00,,,0.00,WUHU216HW,2013-10-19 08:56:00,
2013-10-19 04:58:00,48.6,42.3,29.98,North,0,0.0,0.0,79,0.00,,,0.00,WUHU216HW,2013-10-19 08:58:00,
2013-10-19 04:59:00,48.6,42.3,29.99,North,0,0.0,0.0,79,0.00,,,0.00,WUHU216HW,2013-10-19 08:59:00,
2013-10-19 05:00:00,48.4,42.1,29.98,North,0,0.0,0.0,79,0.00,,,0.00,WUHU216HW,2013-10-19 09:00:00,
2013-10-19 05:01:00,48.4,42.1,29.99,North,0,0.0,0.0,79,0.00,,,0.00,WUHU216HW,2013-10-19 09:01:00,
2013-10-19 05:02:00,48.4,42.1,29.98,North,0,0.0,0.0,79,0.00,,,0.00,WUHU216HW,2013-10-19 09:02:00,
2013-10-19 05:03:00,48.4,42.1,29.98,North,0,0.0,0.0,79,0.00,,,0.00,WUHU216HW,2013-10-19 09:03:00,
2013-10-19 05:04:00,48.2,41.9,29.98,North,0,0.0,0.0,79,0.00,,,0.00,WUHU216HW,2013-10-19 09:04:00,
2013-10-19 05:05:00,48.2,41.9,29.98,North,0,0.0,0.0,79,0.00,,,0.00,WUHU216HW,2013-10-19 09:05:00,
2013-10-19 05:07:00,48.2,41.9,29.98,North,0,0.0,0.0,79,0.00,,,0.00,WUHU216HW,2013-10-19 09:07:00,
2013-10-19 05:08:00,48.1,41.8,29.98,North,0,0.0,0.0,79,0.00,,,0.00,WUHU216HW,2013-10-19 09:08:00,
2013-10-19 05:09:00,48.1,41.8,29.99,North,0,0.0,0.0,79,0.00,,,0.00,WUHU216HW,2013-10-19 09:09:00,
2013-10-19 05:10:00,48.1,41.8,29.99,North,0,0.0,0.0,79,0.00,,,0.00,WUHU216HW,2013-10-19 09:10:00,
2013-10-19 05:12:00,48.1,41.8,29.99,North,0,0.0,0.0,79,0.00,,,0.00,WUHU216HW,2013-10-19 09:12:00,
2013-10-19 05:13:00,48.1,42.1,29.99,North,0,0.0,0.0,80,0.00,,,0.00,WUHU216HW,2013-10-19 09:13:00,
2013-10-19 05:14:00,48.1,42.1,29.99,North,0,0.0,0.0,80,0.00,,,0.00,WUHU216HW,2013-10-19 09:14:00,
2013-10-19 05:15:00,48.1,42.1,29.99,North,0,0.0,0.0,80,0.00,,,0.00,WUHU216HW,2013-10-19 09:15:00,
2013-10-19 05:18:00,48.1,42.1,29.99,North,0,0.0,0.0,80,0.00,,,0.00,WUHU216HW,2013-10-19 09:18:00,
2013-10-19 05:19:00,48.2,42.3,29.99,North,0,0.0,0.0,80,0.00,,,0.00,WUHU216HW,2013-10-19 09:19:00,
2013-10-19 05:20:00,48.2,42.3,29.99,North,0,0.0,0.0,80,0.00,,,0.00,WUHU216HW,2013-10-19 09:20:00,
2013-10-19 05:21:00,48.2,42.3,29.99,North,0,0.0,0.0,80,0.00,,,0.00,WUHU216HW,2013-10-19 09:21:00,
2013-10-19 05:23:00,48.4,42.5,29.98,North,0,0.0,0.0,80,0.00,,,0.00,WUHU216HW,2013-10-19 09:23:00,
2013-10-19 05:24:00,48.4,42.5,29.98,North,0,0.0,0.0,80,0.00,,,0.00,WUHU216HW,2013-10-19 09:24:00,
2013-10-19 05:25:00,48.4,42.5,29.98,North,0,0.0,0.0,80,0.00,,,0.00,WUHU216HW,2013-10-19 09:25:00,
2013-10-19 05:26:00,48.4,42.5,29.98,North,0,0.0,0.0,80,0.00,,,0.00,WUHU216HW,2013-10-19 09:26:00,
2013-10-19 05:28:00,48.4,42.5,29.98,North,0,0.0,0.0,80,0.00,,,0.00,WUHU216HW,2013-10-19 09:28:00,
2013-10-19 05:29:00,48.4,42.5,29.98,North,0,0.0,0.0,80,0.00,,,0.00,WUHU216HW,2013-10-19 09:29:00,
2013-10-19 05:30:00,48.4,42.5,29.98,North,0,0.0,0.0,80,0.00,,,0.00,WUHU216HW,2013-10-19 09:30:00,
2013-10-19 05:31:00,48.4,42.5,29.97,North,0,0.0,0.0,80,0.00,,,0.00,WUHU216HW,2013-10-19 09:31:00,
2013-10-19 05:33:00,48.4,42.5,29.97,North,0,0.0,0.0,80,0.00,,,0.00,WUHU216HW,2013-10-19 09:33:00,
2013-10-19 05:34:00,48.4,42.5,29.97,North,0,0.0,0.0,80,0.00,,,0.00,WUHU216HW,2013-10-19 09:34:00,
2013-10-19 05:36:00,48.6,42.7,29.97,North,0,0.0,0.0,80,0.00,,,0.00,WUHU216HW,2013-10-19 09:36:00,
2013-10-19 05:37:00,48.6,42.7,29.97,North,0,0.0,0.0,80,0.00,,,0.00,WUHU216HW,2013-10-19 09:37:00,
2013-10-19 05:39:00,48.6,42.7,29.97,North,0,0.0,0.0,80,0.00,,,0.00,WUHU216HW,2013-10-19 09:39:00,
2013-10-19 05:41:00,48.4,42.5,29.97,North,0,0.0,0.0,80,0.00,,,0.00,WUHU216HW,2013-10-19 09:41:00,
2013-10-19 05:42:00,48.4,42.5,29.97,North,0,0.0,0.0,80,0.00,,,0.00,WUHU216HW,2013-10-19 09:42:00,
2013-10-19 05:44:00,48.4,42.5,29.96,North,0,0.0,0.0,80,0.00,,,0.00,WUHU216HW,2013-10-19 09:44:00,
2013-10-19 05:46:00,48.4,42.5,29.96,North,0,0.0,0.0,80,0.00,,,0.00,WUHU216HW,2013-10-19 09:46:00,
2013-10-19 05:47:00,48.4,42.5,29.96,North,0,0.0,0.0,80,0.00,,,0.00,WUHU216HW,2013-10-19 09:47:00,
2013-10-19 05:49:00,48.4,42.5,29.96,North,0,0.0,0.0,80,0.00,,,0.00,WUHU216HW,2013-10-19 09:49:00,
2013-10-19 05:52:00,48.4,42.5,29.96,North,0,0.0,0.0,80,0.00,,,0.00,WUHU216HW,2013-10-19 09:52:00,
2013-10-19 05:53:00,48.4,42.5,29.96,North,0,0.0,0.0,80,0.00,,,0.00,WUHU216HW,2013-10-19 09:53:00,
2013-10-19 05:54:00,48.4,42.5,29.96,North,0,0.0,0.0,80,0.00,,,0.00,WUHU216HW,2013-10-19 09:54:00,
2013-10-19 05:57:00,48.4,42.5,29.96,North,0,0.0,0.0,80,0.00,,,0.00,WUHU216HW,2013-10-19 09:57:00,
2013-10-19 05:58:00,48.4,42.5,29.96,North,0,0.0,0.0,80,0.00,,,0.00,WUHU216HW,2013-10-19 09:58:00,
2013-10-19 05:59:00,48.4,42.5,29.96,North,0,0.0,0.0,80,0.00,,,0.00,WUHU216HW,2013-10-19 09:59:00,
2013-10-19 06:00:00,48.4,42.5,29.96,North,0,0.0,0.0,80,0.00,,,0.00,WUHU216HW,2013-10-19 10:00:00,
2013-10-19 06:03:00,48.4,42.5,29.96,North,0,0.0,0.0,80,0.00,,,0.00,WUHU216HW,2013-10-19 10:03:00,
2013-10-19 06:04:00,48.6,42.7,29.96,North,0,0.0,0.0,80,0.00,,,0.00,WUHU216HW,2013-10-19 10:04:00,
2013-10-19 06:05:00,48.6,42.7,29.96,North,0,0.0,0.0,80,0.00,,,0.00,WUHU216HW,2013-10-19 10:05:00,
2013-10-19 06:08:00,48.6,42.7,29.96,North,0,0.0,0.0,80,0.00,,,0.00,WUHU216HW,2013-10-19 10:08:00,
2013-10-19 06:09:00,48.6,42.7,29.96,North,0,0.0,0.0,80,0.00,,,0.00,WUHU216HW,2013-10-19 10:09:00,
2013-10-19 06:10:00,48.6,42.7,29.96,North,0,0.0,0.0,80,0.00,,,0.00,WUHU216HW,2013-10-19 10:10:00,
2013-10-19 06:13:00,48.6,42.7,29.95,North,0,0.0,0.0,80,0.00,,,0.00,WUHU216HW,2013-10-19 10:13:00,
2013-10-19 06:14:00,48.6,43.0,29.95,North,0,0.0,0.0,81,0.00,,,0.00,WUHU216HW,2013-10-19 10:14:00,
2013-10-19 06:16:00,48.6,43.0,29.96,North,0,0.0,0.0,81,0.00,,,0.00,WUHU216HW,2013-10-19 10:16:00,
2013-10-19 06:18:00,48.6,43.0,29.96,North,0,0.0,0.0,81,0.00,,,0.00,WUHU216HW,2013-10-19 10:18:00,
2013-10-19 06:19:00,48.6,43.0,29.96,North,0,0.0,0.0,81,0.00,,,0.00,WUHU216HW,2013-10-19 10:19:00,
2013-10-19 06:20:00,48.6,43.0,29.96,North,0,0.0,0.0,81,0.00,,,0.00,WUHU216HW,2013-10-19 10:20:00,
2013-10-19 06:21:00,48.6,43.0,29.96,North,0,0.0,0.0,81,0.00,,,0.00,WUHU216HW,2013-10-19 10:21:00,
2013-10-19 06:24:00,48.8,43.2,29.96,North,0,0.0,0.0,81,0.00,,,0.00,WUHU216HW,2013-10-19 10:24:00,
2013-10-19 06:25:00,48.8,43.2,29.96,North,0,0.0,0.0,81,0.00,,,0.00,WUHU216HW,2013-10-19 10:25:00,
2013-10-19 06:26:00,49.0,43.4,29.96,North,0,0.0,0.0,81,0.00,,,0.00,WUHU216HW,2013-10-19 10:26:00,
2013-10-19 06:29:00,49.0,43.4,29.96,North,0,0.0,0.0,81,0.00,,,0.00,WUHU216HW,2013-10-19 10:29:00,
2013-10-19 06:30:00,49.0,43.4,29.96,North,0,0.0,0.0,81,0.00,,,0.00,WUHU216HW,2013-10-19 10:30:00,
2013-10-19 06:31:00,49.0,43.4,29.96,North,0,0.0,0.0,81,0.00,,,0.00,WUHU216HW,2013-10-19 10:31:00,
2013-10-19 06:34:00,49.0,43.4,29.96,North,0,0.0,0.0,81,0.00,,,0.00,WUHU216HW,2013-10-19 10:34:00,
2013-10-19 06:35:00,49.0,43.7,29.96,North,0,0.0,0.0,82,0.00,,,0.00,WUHU216HW,2013-10-19 10:35:00,
2013-10-19 06:36:00,49.0,43.7,29.96,North,0,0.0,0.0,82,0.00,,,0.00,WUHU216HW,2013-10-19 10:36:00,
2013-10-19 06:39:00,49.0,43.4,29.96,North,0,0.0,0.0,81,0.00,,,0.00,WUHU216HW,2013-10-19 10:39:00,
2013-10-19 06:40:00,49.0,43.4,29.96,North,0,0.0,0.0,81,0.00,,,0.00,WUHU216HW,2013-10-19 10:40:00,
2013-10-19 06:41:00,49.0,43.4,29.96,North,0,0.0,0.0,81,0.00,,,0.00,WUHU216HW,2013-10-19 10:41:00,
2013-10-19 06:44:00,49.0,43.4,29.96,North,0,0.0,0.0,81,0.00,,,0.00,WUHU216HW,2013-10-19 10:44:00,
2013-10-19 06:45:00,49.0,43.4,29.96,North,0,0.0,0.0,81,0.00,,,0.00,WUHU216HW,2013-10-19 10:45:00,
2013-10-19 06:46:00,49.0,43.4,29.96,North,0,0.0,0.0,81,0.00,,,0.00,WUHU216HW,2013-10-19 10:46:00,
2013-10-19 06:47:00,49.0,43.4,29.96,North,0,0.0,0.0,81,0.00,,,0.00,WUHU216HW,2013-10-19 10:47:00,
2013-10-19 06:50:00,48.8,43.2,29.96,North,0,0.0,0.0,81,0.00,,,0.00,WUHU216HW,2013-10-19 10:50:00,
2013-10-19 06:52:00,48.6,43.0,29.96,North,0,0.0,0.0,81,0.00,,,0.00,WUHU216HW,2013-10-19 10:52:00,
2013-10-19 06:55:00,48.6,43.0,29.96,North,0,0.0,0.0,81,0.00,,,0.00,WUHU216HW,2013-10-19 10:55:00,
2013-10-19 06:56:00,48.6,42.7,29.96,North,0,0.0,0.0,80,0.00,,,0.00,WUHU216HW,2013-10-19 10:56:00,
2013-10-19 06:57:00,48.4,42.5,29.96,North,0,0.0,0.0,80,0.00,,,0.00,WUHU216HW,2013-10-19 10:57:00,
2013-10-19 07:00:00,48.2,42.3,29.96,North,0,0.0,0.0,80,0.00,,,0.00,WUHU216HW,2013-10-19 11:00:00,
2013-10-19 07:01:00,48.2,42.3,29.96,North,0,0.0,0.0,80,0.00,,,0.00,WUHU216HW,2013-10-19 11:01:00,
2013-10-19 07:02:00,48.2,42.3,29.96,North,0,0.0,0.0,80,0.00,,,0.00,WUHU216HW,2013-10-19 11:02:00,
2013-10-19 07:05:00,48.2,42.3,29.96,North,0,0.0,0.0,80,0.00,,,0.00,WUHU216HW,2013-10-19 11:05:00,
2013-10-19 07:06:00,48.2,42.3,29.96,North,0,0.0,0.0,80,0.00,,,0.00,WUHU216HW,2013-10-19 11:06:00,
2013-10-19 07:07:00,48.2,42.3,29.96,North,0,0.0,0.0,80,0.00,,,0.00,WUHU216HW,2013-10-19 11:07:00,
2013-10-19 07:09:00,48.1,42.1,29.96,North,0,0.0,0.0,80,0.00,,,0.00,WUHU216HW,2013-10-19 11:09:00,
2013-10-19 07:11:00,48.1,42.1,29.96,North,0,0.0,0.0,80,0.00,,,0.00,WUHU216HW,2013-10-19 11:11:00,
2013-10-19 07:12:00,48.1,42.1,29.96,North,0,0.0,0.0,80,0.00,,,0.00,WUHU216HW,2013-10-19 11:12:00,
2013-10-19 07:14:00,48.1,42.1,29.96,North,0,0.0,0.0,80,0.00,,,0.00,WUHU216HW,2013-10-19 11:14:00,
2013-10-19 07:16:00,48.2,42.3,29.96,North,0,0.0,0.0,80,0.00,,,0.00,WUHU216HW,2013-10-19 11:16:00,
2013-10-19 07:17:00,48.1,42.5,29.96,North,0,0.0,0.0,81,0.00,,,0.00,WUHU216HW,2013-10-19 11:17:00,
2013-10-19 07:18:00,48.2,42.7,29.96,North,0,0.0,0.0,81,0.00,,,0.00,WUHU216HW,2013-10-19 11:18:00,
2013-10-19 07:19:00,48.1,42.1,29.97,North,0,0.0,0.0,80,0.00,,,0.00,WUHU216HW,2013-10-19 11:19:00,
2013-10-19 07:21:00,48.1,42.5,29.97,North,0,0.0,0.0,81,0.00,,,0.00,WUHU216HW,2013-10-19 11:21:00,
2013-10-19 07:22:00,48.1,42.5,29.97,North,0,0.0,0.0,81,0.00,,,0.00,WUHU216HW,2013-10-19 11:22:00,
2013-10-19 07:23:00,48.2,42.7,29.97,North,0,0.0,0.0,81,0.00,,,0.00,WUHU216HW,2013-10-19 11:23:00,
2013-10-19 07:24:00,48.2,42.7,29.97,North,0,0.0,0.0,81,0.00,,,0.00,WUHU216HW,2013-10-19 11:24:00,
2013-10-19 07:26:00,48.2,42.7,29.97,North,0,0.0,0.0,81,0.00,,,0.00,WUHU216HW,2013-10-19 11:26:00,
2013-10-19 07:28:00,48.4,43.1,29.97,North,0,0.0,0.0,82,0.00,,,0.00,WUHU216HW,2013-10-19 11:28:00,
2013-10-19 07:29:00,48.6,43.3,29.97,North,0,0.0,0.0,82,0.00,,,0.00,WUHU216HW,2013-10-19 11:29:00,
2013-10-19 07:31:00,48.6,43.3,29.97,North,0,0.0,0.0,82,0.00,,,0.00,WUHU216HW,2013-10-19 11:31:00,
2013-10-19 07:32:00,48.6,43.3,29.97,North,0,0.0,0.0,82,0.00,,,0.00,WUHU216HW,2013-10-19 11:32:00,
2013-10-19 07:33:00,48.8,43.5,29.97,North,0,0.0,0.0,82,0.00,,,0.00,WUHU216HW,2013-10-19 11:33:00,
2013-10-19 07:35:00,49.0,43.7,29.97,North,0,0.0,0.0,82,0.00,,,0.00,WUHU216HW,2013-10-19 11:35:00,
2013-10-19 07:36:00,49.1,43.8,29.97,North,0,0.0,0.0,82,0.00,,,0.00,WUHU216HW,2013-10-19 11:36:00,
2013-10-19 07:37:00,49.1,44.1,29.97,North,0,0.0,0.0,83,0.00,,,0.00,WUHU216HW,2013-10-19 11:37:00,
2013-10-19 07:38:00,49.3,44.0,29.97,North,0,0.0,0.0,82,0.00,,,0.00,WUHU216HW,2013-10-19 11:38:00,
2013-10-19 07:40:00,49.3,44.0,29.97,North,0,0.0,0.0,82,0.00,,,0.00,WUHU216HW,2013-10-19 11:40:00,
2013-10-19 07:42:00,49.5,44.2,29.97,North,0,0.0,0.0,82,0.00,,,0.00,WUHU216HW,2013-10-19 11:42:00,
2013-10-19 07:43:00,49.5,44.2,29.97,North,0,0.0,0.0,82,0.00,,,0.00,WUHU216HW,2013-10-19 11:43:00,
2013-10-19 07:45:00,49.5,44.2,29.97,North,0,0.0,0.0,82,0.00,,,0.00,WUHU216HW,2013-10-19 11:45:00,
2013-10-19 07:47:00,49.5,44.2,29.97,North,0,0.0,0.0,82,0.00,,,0.00,WUHU216HW,2013-10-19 11:47:00,
2013-10-19 07:48:00,49.5,44.2,29.97,North,0,0.0,0.0,82,0.00,,,0.00,WUHU216HW,2013-10-19 11:48:00,
2013-10-19 07:50:00,49.7,44.4,29.97,North,0,0.0,0.0,82,0.00,,,0.00,WUHU216HW,2013-10-19 11:50:00,
2013-10-19 07:51:00,49.5,44.2,29.97,North,0,0.0,0.0,82,0.00,,,0.00,WUHU216HW,2013-10-19 11:51:00,
2013-10-19 07:52:00,49.5,44.2,29.97,North,0,0.0,0.0,82,0.00,,,0.00,WUHU216HW,2013-10-19 11:52:00,
2013-10-19 07:53:00,49.7,44.4,29.97,North,0,0.0,0.0,82,0.00,,,0.00,WUHU216HW,2013-10-19 11:53:00,
2013-10-19 07:55:00,49.7,44.4,29.97,North,0,0.0,0.0,82,0.00,,,0.00,WUHU216HW,2013-10-19 11:55:00,
2013-10-19 07:56:00,49.7,44.4,29.98,North,0,0.0,0.0,82,0.00,,,0.00,WUHU216HW,2013-10-19 11:56:00,
2013-10-19 07:57:00,49.7,44.4,29.97,North,0,0.0,0.0,82,0.00,,,0.00,WUHU216HW,2013-10-19 11:57:00,
2013-10-19 07:58:00,49.7,44.4,29.97,North,0,0.0,0.0,82,0.00,,,0.00,WUHU216HW,2013-10-19 11:58:00,
2013-10-19 08:00:00,49.9,44.6,29.98,North,0,0.0,0.0,82,0.00,,,0.00,WUHU216HW,2013-10-19 12:00:00,
2013-10-19 08:01:00,49.9,44.6,29.98,North,0,0.0,0.0,82,0.00,,,0.00,WUHU216HW,2013-10-19 12:01:00,
2013-10-19 08:02:00,49.9,44.6,29.98,North,0,0.0,0.0,82,0.00,,,0.00,WUHU216HW,2013-10-19 12:02:00,
2013-10-19 08:03:00,50.0,44.7,29.98,North,0,0.0,0.0,82,0.00,,,0.00,WUHU216HW,2013-10-19 12:03:00,
2013-10-19 08:05:00,50.0,44.7,29.97,North,0,0.0,0.0,82,0.00,,,0.00,WUHU216HW,2013-10-19 12:05:00,
2013-10-19 08:06:00,50.0,44.7,29.98,North,0,0.0,0.0,82,0.00,,,0.00,WUHU216HW,2013-10-19 12:06:00,
2013-10-19 08:07:00,50.2,44.9,29.97,North,0,0.0,0.0,82,0.00,,,0.00,WUHU216HW,2013-10-19 12:07:00,
2013-10-19 08:08:00,50.2,44.9,29.97,North,0,0.0,0.0,82,0.00,,,0.00,WUHU216HW,2013-10-19 12:08:00,
2013-10-19 08:11:00,50.4,45.1,29.98,North,0,0.0,0.0,82,0.00,,,0.00,WUHU216HW,2013-10-19 12:11:00,
2013-10-19 08:12:00,50.4,45.1,29.98,North,0,0.0,0.0,82,0.00,,,0.00,WUHU216HW,2013-10-19 12:12:00,
2013-10-19 08:13:00,50.4,45.1,29.98,North,0,0.0,0.0,82,0.00,,,0.00,WUHU216HW,2013-10-19 12:13:00,
2013-10-19 08:16:00,50.8,45.5,29.98,North,0,0.0,0.0,82,0.00,,,0.00,WUHU216HW,2013-10-19 12:16:00,
2013-10-19 08:17:00,50.8,45.5,29.98,North,0,0.0,0.0,82,0.00,,,0.00,WUHU216HW,2013-10-19 12:17:00,
2013-10-19 08:18:00,50.8,45.5,29.98,North,0,0.0,0.0,82,0.00,,,0.00,WUHU216HW,2013-10-19 12:18:00,
2013-10-19 08:19:00,50.8,45.5,29.98,North,0,0.0,0.0,82,0.00,,,0.00,WUHU216HW,2013-10-19 12:19:00,
2013-10-19 08:21:00,50.8,45.5,29.98,North,0,0.0,0.0,82,0.00,,,0.00,WUHU216HW,2013-10-19 12:21:00,
2013-10-19 08:22:00,50.9,45.6,29.98,North,0,0.0,0.0,82,0.00,,,0.00,WUHU216HW,2013-10-19 12:22:00,
2013-10-19 08:23:00,50.9,45.6,29.98,North,0,0.0,0.0,82,0.00,,,0.00,WUHU216HW,2013-10-19 12:23:00,
2013-10-19 08:24:00,51.1,45.8,29.98,North,0,0.0,0.0,82,0.00,,,0.00,WUHU216HW,2013-10-19 12:24:00,
2013-10-19 08:26:00,51.1,45.8,29.98,North,0,0.0,0.0,82,0.00,,,0.00,WUHU216HW,2013-10-19 12:26:00,
2013-10-19 08:27:00,51.3,46.0,29.98,North,0,0.0,0.0,82,0.00,,,0.00,WUHU216HW,2013-10-19 12:27:00,
2013-10-19 08:28:00,51.3,46.0,29.98,North,0,0.0,0.0,82,0.00,,,0.00,WUHU216HW,2013-10-19 12:28:00,
2013-10-19 08:29:00,51.5,46.2,29.98,North,0,0.0,0.0,82,0.00,,,0.00,WUHU216HW,2013-10-19 12:29:00,
2013-10-19 08:31:00,51.8,46.5,29.98,North,0,0.0,0.0,82,0.00,,,0.00,WUHU216HW,2013-10-19 12:31:00,
2013-10-19 08:32:00,51.8,46.5,29.97,North,0,0.0,0.0,82,0.00,,,0.00,WUHU216HW,2013-10-19 12:32:00,
2013-10-19 08:33:00,51.8,46.5,29.97,North,0,0.0,0.0,82,0.00,,,0.00,WUHU216HW,2013-10-19 12:33:00,
2013-10-19 08:34:00,52.0,46.7,29.98,North,0,0.0,0.0,82,0.00,,,0.00,WUHU216HW,2013-10-19 12:34:00,
2013-10-19 08:37:00,52.2,46.9,29.98,North,0,0.0,0.0,82,0.00,,,0.00,WUHU216HW,2013-10-19 12:37:00,
2013-10-19 08:38:00,52.4,47.1,29.98,North,0,0.0,0.0,82,0.00,,,0.00,WUHU216HW,2013-10-19 12:38:00,
2013-10-19 08:39:00,52.6,47.3,29.98,North,0,0.0,0.0,82,0.00,,,0.00,WUHU216HW,2013-10-19 12:39:00,
2013-10-19 08:42:00,52.7,47.4,29.97,North,0,0.0,0.0,82,0.00,,,0.00,WUHU216HW,2013-10-19 12:42:00,
2013-10-19 08:43:00,52.9,47.6,29.97,North,0,0.0,0.0,82,0.00,,,0.00,WUHU216HW,2013-10-19 12:43:00,
2013-10-19 08:44:00,52.9,47.6,29.97,North,0,0.0,0.0,82,0.00,,,0.00,WUHU216HW,2013-10-19 12:44:00,
2013-10-19 08:45:00,52.9,47.6,29.97,North,0,0.0,0.0,82,0.00,,,0.00,WUHU216HW,2013-10-19 12:45:00,
2013-10-19 08:47:00,53.3,48.0,29.97,North,0,0.0,0.0,82,0.00,,,0.00,WUHU216HW,2013-10-19 12:47:00,
2013-10-19 08:48:00,53.3,48.0,29.97,North,0,0.0,0.0,82,0.00,,,0.00,WUHU216HW,2013-10-19 12:48:00,
2013-10-19 08:49:00,53.3,48.0,29.97,North,0,0.0,0.0,82,0.00,,,0.00,WUHU216HW,2013-10-19 12:49:00,
2013-10-19 08:50:00,53.6,48.3,29.98,North,0,0.0,0.0,82,0.00,,,0.00,WUHU216HW,2013-10-19 12:50:00,
2013-10-19 08:52:00,53.8,48.5,29.98,North,0,0.0,0.0,82,0.00,,,0.00,WUHU216HW,2013-10-19 12:52:00,
2013-10-19 08:53:00,54.0,48.6,29.98,North,0,0.0,0.0,82,0.00,,,0.00,WUHU216HW,2013-10-19 12:53:00,
2013-10-19 08:54:00,54.2,48.8,29.98,North,0,0.0,0.0,82,0.00,,,0.00,WUHU216HW,2013-10-19 12:54:00,
2013-10-19 08:55:00,54.2,48.8,29.98,North,0,0.0,0.0,82,0.00,,,0.00,WUHU216HW,2013-10-19 12:55:00,
2013-10-19 08:57:00,54.5,49.1,29.98,North,0,0.0,0.0,82,0.00,,,0.00,WUHU216HW,2013-10-19 12:57:00,
2013-10-19 08:58:00,54.7,49.3,29.98,North,0,0.0,0.0,82,0.00,,,0.00,WUHU216HW,2013-10-19 12:58:00,
2013-10-19 08:59:00,54.9,49.5,29.98,North,0,0.0,0.0,82,0.00,,,0.00,WUHU216HW,2013-10-19 12:59:00,
2013-10-19 09:00:00,54.9,49.5,29.98,North,0,0.0,0.0,82,0.00,,,0.00,WUHU216HW,2013-10-19 13:00:00,
2013-10-19 09:02:00,55.4,50.0,29.98,North,0,0.0,0.0,82,0.00,,,0.00,WUHU216HW,2013-10-19 13:02:00,
2013-10-19 09:03:00,55.6,50.1,29.98,North,0,0.0,0.0,82,0.00,,,0.00,WUHU216HW,2013-10-19 13:03:00,
2013-10-19 09:04:00,55.6,50.1,29.98,North,0,0.0,0.0,82,0.00,,,0.00,WUHU216HW,2013-10-19 13:04:00,
2013-10-19 09:05:00,55.8,50.3,29.98,North,0,0.0,0.0,82,0.00,,,0.00,WUHU216HW,2013-10-19 13:05:00,
2013-10-19 09:06:00,55.8,50.1,29.98,North,0,0.0,0.0,81,0.00,,,0.00,WUHU216HW,2013-10-19 13:06:00,
2013-10-19 09:07:00,56.2,49.3,29.98,North,0,0.0,0.0,78,0.00,,,0.00,WUHU216HW,2013-10-19 13:07:00,
2013-10-19 09:09:00,56.5,49.7,29.97,North,0,0.0,0.0,78,0.00,,,0.00,WUHU216HW,2013-10-19 13:09:00,
2013-10-19 09:10:00,56.7,49.1,29.97,North,0,0.0,0.0,76,0.00,,,0.00,WUHU216HW,2013-10-19 13:10:00,
2013-10-19 09:11:00,57.1,49.1,29.97,North,0,0.0,0.0,75,0.00,,,0.00,WUHU216HW,2013-10-19 13:11:00,
2013-10-19 09:12:00,57.6,49.3,29.97,North,0,0.0,0.0,74,0.00,,,0.00,WUHU216HW,2013-10-19 13:12:00,
2013-10-19 09:14:00,58.0,49.3,29.97,North,0,0.0,0.0,73,0.00,,,0.00,WUHU216HW,2013-10-19 13:14:00,
2013-10-19 09:15:00,58.0,49.3,29.97,North,0,0.0,0.0,73,0.00,,,0.00,WUHU216HW,2013-10-19 13:15:00,
2013-10-19 09:16:00,58.3,49.7,29.97,North,0,0.0,0.0,73,0.00,,,0.00,WUHU216HW,2013-10-19 13:16:00,
2013-10-19 09:17:00,58.3,49.7,29.97,North,0,0.0,0.0,73,0.00,,,0.00,WUHU216HW,2013-10-19 13:17:00,
2013-10-19 09:19:00,58.7,49.7,29.97,North,0,0.0,0.0,72,0.00,,,0.00,WUHU216HW,2013-10-19 13:19:00,
2013-10-19 09:20:00,58.7,49.3,29.97,North,0,0.0,0.0,71,0.00,,,0.00,WUHU216HW,2013-10-19 13:20:00,
2013-10-19 09:21:00,58.9,49.1,29.97,North,0,0.0,0.0,70,0.00,,,0.00,WUHU216HW,2013-10-19 13:21:00,
2013-10-19 09:22:00,58.9,49.1,29.96,North,0,0.0,0.0,70,0.00,,,0.00,WUHU216HW,2013-10-19 13:22:00,
2013-10-19 09:24:00,59.2,49.1,29.97,North,0,0.0,0.0,69,0.00,,,0.00,WUHU216HW,2013-10-19 13:24:00,
2013-10-19 09:25:00,59.2,49.1,29.96,North,0,0.0,0.0,69,0.00,,,0.00,WUHU216HW,2013-10-19 13:25:00,
2013-10-19 09:27:00,59.2,48.7,29.96,North,0,0.0,0.0,68,0.00,,,0.00,WUHU216HW,2013-10-19 13:27:00,
2013-10-19 09:28:00,59.4,48.9,29.96,North,0,0.0,0.0,68,0.00,,,0.00,WUHU216HW,2013-10-19 13:28:00,
2013-10-19 09:29:00,59.4,48.9,29.96,North,0,0.0,0.0,68,0.00,,,0.00,WUHU216HW,2013-10-19 13:29:00,
2013-10-19 09:30:00,59.6,49.1,29.96,North,0,0.0,0.0,68,0.00,,,0.00,WUHU216HW,2013-10-19 13:30:00,
2013-10-19 09:32:00,59.6,49.4,29.96,North,0,0.0,0.0,69,0.00,,,0.00,WUHU216HW,2013-10-19 13:32:00,
2013-10-19 09:33:00,59.8,48.8,29.96,North,0,0.0,0.0,67,0.00,,,0.00,WUHU216HW,2013-10-19 13:33:00,
2013-10-19 09:34:00,59.8,48.8,29.96,North,0,0.0,0.0,67,0.00,,,0.00,WUHU216HW,2013-10-19 13:34:00,
2013-10-19 09:35:00,59.8,48.4,29.96,North,0,0.0,0.0,66,0.00,,,0.00,WUHU216HW,2013-10-19 13:35:00,
2013-10-19 09:37:00,59.9,48.6,29.96,North,0,0.0,0.0,66,0.00,,,0.00,WUHU216HW,2013-10-19 13:37:00,
2013-10-19 09:38:00,59.9,47.7,29.96,North,0,0.0,0.0,64,0.00,,,0.00,WUHU216HW,2013-10-19 13:38:00,
2013-10-19 09:39:00,59.9,47.7,29.96,North,0,0.0,0.0,64,0.00,,,0.00,WUHU216HW,2013-10-19 13:39:00,
2013-10-19 09:40:00,59.9,48.2,29.96,North,0,0.0,0.0,65,0.00,,,0.00,WUHU216HW,2013-10-19 13:40:00,
2013-10-19 09:42:00,60.1,48.3,29.96,North,0,0.0,0.0,65,0.00,,,0.00,WUHU216HW,2013-10-19 13:42:00,
2013-10-19 09:43:00,60.1,48.3,29.96,North,0,0.0,0.0,65,0.00,,,0.00,WUHU216HW,2013-10-19 13:43:00,
2013-10-19 09:44:00,60.1,48.3,29.96,North,0,0.0,0.0,65,0.00,,,0.00,WUHU216HW,2013-10-19 13:44:00,
2013-10-19 09:45:00,60.1,48.8,29.96,North,0,0.0,0.0,66,0.00,,,0.00,WUHU216HW,2013-10-19 13:45:00,
2013-10-19 09:47:00,60.3,48.5,29.96,North,0,0.0,0.0,65,0.00,,,0.00,WUHU216HW,2013-10-19 13:47:00,
2013-10-19 09:48:00,60.5,48.7,29.96,North,0,0.0,0.0,65,0.00,,,0.00,WUHU216HW,2013-10-19 13:48:00,
2013-10-19 09:49:00,60.5,48.7,29.96,North,0,0.0,0.0,65,0.00,,,0.00,WUHU216HW,2013-10-19 13:49:00,
2013-10-19 09:50:00,60.5,48.7,29.96,North,0,0.0,0.0,65,0.00,,,0.00,WUHU216HW,2013-10-19 13:50:00,
2013-10-19 09:51:00,60.8,49.1,29.96,North,0,0.0,0.0,65,0.00,,,0.00,WUHU216HW,2013-10-19 13:51:00,
2013-10-19 09:53:00,61.0,49.2,29.96,North,0,0.0,0.0,65,0.00,,,0.00,WUHU216HW,2013-10-19 13:53:00,
2013-10-19 09:55:00,61.4,49.5,29.96,North,0,0.0,0.0,65,0.00,,,0.00,WUHU216HW,2013-10-19 13:55:00,
2013-10-19 09:56:00,61.4,49.2,29.96,North,0,0.0,0.0,64,0.00,,,0.00,WUHU216HW,2013-10-19 13:56:00,
2013-10-19 09:58:00,61.6,49.3,29.96,North,0,0.0,0.0,64,0.00,,,0.00,WUHU216HW,2013-10-19 13:58:00,
2013-10-19 09:59:00,61.6,48.9,29.96,North,0,0.0,0.0,63,0.00,,,0.00,WUHU216HW,2013-10-19 13:59:00,
2013-10-19 10:00:00,61.7,48.3,29.97,North,0,0.0,0.0,61,0.00,,,0.00,WUHU216HW,2013-10-19 14:00:00,
2013-10-19 10:01:00,61.6,47.6,29.97,North,0,0.0,0.0,60,0.00,,,0.00,WUHU216HW,2013-10-19 14:01:00,
2013-10-19 10:04:00,61.6,47.2,29.96,North,0,0.0,0.0,59,0.00,,,0.00,WUHU216HW,2013-10-19 14:04:00,
2013-10-19 10:05:00,61.6,47.6,29.96,North,0,0.0,0.0,60,0.00,,,0.00,WUHU216HW,2013-10-19 14:05:00,
2013-10-19 10:06:00,61.7,47.8,29.96,North,0,0.0,0.0,60,0.00,,,0.00,WUHU216HW,2013-10-19 14:06:00,
2013-10-19 10:09:00,61.7,48.6,29.97,North,0,0.0,0.0,62,0.00,,,0.00,WUHU216HW,2013-10-19 14:09:00,
2013-10-19 10:10:00,61.7,48.3,29.97,North,0,0.0,0.0,61,0.00,,,0.00,WUHU216HW,2013-10-19 14:10:00,
2013-10-19 10:11:00,61.7,48.3,29.97,North,0,0.0,0.0,61,0.00,,,0.00,WUHU216HW,2013-10-19 14:11:00,
2013-10-19 10:14:00,61.7,47.4,29.97,North,0,0.0,0.0,59,0.00,,,0.00,WUHU216HW,2013-10-19 14:14:00,
2013-10-19 10:16:00,61.9,48.0,29.97,North,0,0.0,0.0,60,0.00,,,0.00,WUHU216HW,2013-10-19 14:16:00,
2013-10-19 10:17:00,61.9,48.3,29.97,North,0,0.0,0.0,61,0.00,,,0.00,WUHU216HW,2013-10-19 14:17:00,
2013-10-19 10:19:00,62.3,47.8,29.97,North,0,0.0,0.0,59,0.00,,,0.00,WUHU216HW,2013-10-19 14:19:00,
2013-10-19 10:21:00,62.3,48.2,29.97,North,0,0.0,0.0,60,0.00,,,0.00,WUHU216HW,2013-10-19 14:21:00,
2013-10-19 10:22:00,62.5,48.4,29.97,North,0,0.0,0.0,60,0.00,,,0.00,WUHU216HW,2013-10-19 14:22:00,
2013-10-19 10:25:00,62.6,48.6,29.97,North,0,0.0,0.0,60,0.00,,,0.00,WUHU216HW,2013-10-19 14:25:00,
2013-10-19 10:26:00,62.8,48.8,29.97,North,0,0.0,0.0,60,0.00,,,0.00,WUHU216HW,2013-10-19 14:26:00,
2013-10-19 10:27:00,62.8,48.8,29.97,North,0,0.0,0.0,60,0.00,,,0.00,WUHU216HW,2013-10-19 14:27:00,
2013-10-19 10:30:00,63.2,49.1,29.97,North,0,0.0,0.0,60,0.00,,,0.00,WUHU216HW,2013-10-19 14:30:00,
2013-10-19 10:31:00,63.2,49.1,29.98,North,0,0.0,0.0,60,0.00,,,0.00,WUHU216HW,2013-10-19 14:31:00,
2013-10-19 10:32:00,63.2,49.1,29.98,North,0,0.0,0.0,60,0.00,,,0.00,WUHU216HW,2013-10-19 14:32:00,
2013-10-19 10:35:00,63.7,49.6,29.98,North,0,0.0,0.0,60,0.00,,,0.00,WUHU216HW,2013-10-19 14:35:00,
2013-10-19 10:36:00,63.7,50.1,29.98,North,0,0.0,0.0,61,0.00,,,0.00,WUHU216HW,2013-10-19 14:36:00,
2013-10-19 10:37:00,63.7,49.6,29.97,North,0,0.0,0.0,60,0.00,,,0.00,WUHU216HW,2013-10-19 14:37:00,
2013-10-19 10:40:00,63.7,49.1,29.98,North,0,0.0,0.0,59,0.00,,,0.00,WUHU216HW,2013-10-19 14:40:00,
2013-10-19 10:41:00,63.7,48.6,29.98,North,0,0.0,0.0,58,0.00,,,0.00,WUHU216HW,2013-10-19 14:41:00,
2013-10-19 10:42:00,63.5,49.0,29.98,North,0,0.0,0.0,59,0.00,,,0.00,WUHU216HW,2013-10-19 14:42:00,
2013-10-19 10:46:00,63.5,49.4,29.97,North,0,0.0,0.0,60,0.00,,,0.00,WUHU216HW,2013-10-19 14:46:00,
2013-10-19 10:47:00,63.4,49.2,29.97,North,0,0.0,0.0,60,0.00,,,0.00,WUHU216HW,2013-10-19 14:47:00,
2013-10-19 10:51:00,63.2,49.1,29.96,North,0,0.0,0.0,60,0.00,,,0.00,WUHU216HW,2013-10-19 14:51:00,
2013-10-19 10:52:00,63.0,49.0,29.96,North,0,0.0,0.0,60,0.00,,,0.00,WUHU216HW,2013-10-19 14:52:00,
2013-10-19 10:56:00,63.0,49.3,29.96,North,0,0.0,0.0,61,0.00,,,0.00,WUHU216HW,2013-10-19 14:56:00,
2013-10-19 10:57:00,63.0,49.3,29.97,North,0,0.0,0.0,61,0.00,,,0.00,WUHU216HW,2013-10-19 14:57:00,
2013-10-19 10:58:00,63.0,49.8,29.97,North,0,0.0,0.0,62,0.00,,,0.00,WUHU216HW,2013-10-19 14:58:00,
2013-10-19 11:02:00,62.8,49.1,29.97,North,0,0.0,0.0,61,0.00,,,0.00,WUHU216HW,2013-10-19 15:02:00,
2013-10-19 11:03:00,63.0,49.3,29.97,North,0,0.0,0.0,61,0.00,,,0.00,WUHU216HW,2013-10-19 15:03:00,
2013-10-19 11:07:00,63.2,49.5,29.97,North,0,0.0,0.0,61,0.00,,,0.00,WUHU216HW,2013-10-19 15:07:00,
2013-10-19 11:08:00,63.2,49.5,29.97,North,0,0.0,0.0,61,0.00,,,0.00,WUHU216HW,2013-10-19 15:08:00,
2013-10-19 11:13:00,63.2,49.1,29.97,North,0,0.0,0.0,60,0.00,,,0.00,WUHU216HW,2013-10-19 15:13:00,
2013-10-19 11:14:00,63.2,49.1,29.97,North,0,0.0,0.0,60,0.00,,,0.00,WUHU216HW,2013-10-19 15:14:00,
2013-10-19 11:18:00,63.4,48.8,29.96,North,0,0.0,0.0,59,0.00,,,0.00,WUHU216HW,2013-10-19 15:18:00,
2013-10-19 11:20:00,63.4,48.8,29.96,North,0,0.0,0.0,59,0.00,,,0.00,WUHU216HW,2013-10-19 15:20:00,
2013-10-19 11:23:00,63.4,49.2,29.96,North,0,0.0,0.0,60,0.00,,,0.00,WUHU216HW,2013-10-19 15:23:00,
2013-10-19 11:25:00,63.5,49.0,29.96,North,0,0.0,0.0,59,0.00,,,0.00,WUHU216HW,2013-10-19 15:25:00,
2013-10-19 11:28:00,63.5,49.0,29.96,North,0,0.0,0.0,59,0.00,,,0.00,WUHU216HW,2013-10-19 15:28:00,
2013-10-19 11:29:00,63.5,49.0,29.96,North,0,0.0,0.0,59,0.00,,,0.00,WUHU216HW,2013-10-19 15:29:00,
2013-10-19 11:31:00,63.5,49.0,29.95,North,0,0.0,0.0,59,0.00,,,0.00,WUHU216HW,2013-10-19 15:31:00,
2013-10-19 11:33:00,63.4,49.2,29.94,North,0,0.0,0.0,60,0.00,,,0.00,WUHU216HW,2013-10-19 15:33:00,
2013-10-19 11:34:00,63.4,49.2,29.94,North,0,0.0,0.0,60,0.00,,,0.00,WUHU216HW,2013-10-19 15:34:00,
2013-10-19 11:35:00,63.4,49.2,29.94,North,0,0.0,0.0,60,0.00,,,0.00,WUHU216HW,2013-10-19 15:35:00,
2013-10-19 11:36:00,63.4,49.2,29.94,North,0,0.0,0.0,60,0.00,,,0.00,WUHU216HW,2013-10-19 15:36:00,
2013-10-19 11:38:00,63.2,49.1,29.94,North,0,0.0,0.0,60,0.00,,,0.00,WUHU216HW,2013-10-19 15:38:00,
2013-10-19 11:39:00,63.2,49.1,29.94,North,0,0.0,0.0,60,0.00,,,0.00,WUHU216HW,2013-10-19 15:39:00,
2013-10-19 11:40:00,63.2,49.1,29.94,North,0,0.0,0.0,60,0.00,,,0.00,WUHU216HW,2013-10-19 15:40:00,
2013-10-19 11:41:00,63.2,49.1,29.94,North,0,0.0,0.0,60,0.00,,,0.00,WUHU216HW,2013-10-19 15:41:00,
2013-10-19 11:43:00,63.0,49.0,29.95,North,0,0.0,0.0,60,0.00,,,0.00,WUHU216HW,2013-10-19 15:43:00,
2013-10-19 11:44:00,63.0,49.0,29.94,North,0,0.0,0.0,60,0.00,,,0.00,WUHU216HW,2013-10-19 15:44:00,
2013-10-19 11:45:00,63.0,49.0,29.94,North,0,0.0,0.0,60,0.00,,,0.00,WUHU216HW,2013-10-19 15:45:00,
2013-10-19 11:46:00,63.0,49.3,29.94,North,0,0.0,0.0,61,0.00,,,0.00,WUHU216HW,2013-10-19 15:46:00,
2013-10-19 11:48:00,63.0,49.3,29.94,North,0,0.0,0.0,61,0.00,,,0.00,WUHU216HW,2013-10-19 15:48:00,
2013-10-19 11:49:00,63.0,49.3,29.94,North,0,0.0,0.0,61,0.00,,,0.00,WUHU216HW,2013-10-19 15:49:00,
2013-10-19 11:50:00,63.0,49.8,29.94,North,0,0.0,0.0,62,0.00,,,0.00,WUHU216HW,2013-10-19 15:50:00,
2013-10-19 11:51:00,63.0,49.3,29.94,North,0,0.0,0.0,61,0.00,,,0.00,WUHU216HW,2013-10-19 15:51:00,
2013-10-19 11:52:00,63.0,49.8,29.94,North,0,0.0,0.0,62,0.00,,,0.00,WUHU216HW,2013-10-19 15:52:00,
2013-10-19 11:53:00,63.2,50.0,29.94,North,0,0.0,0.0,62,0.00,,,0.00,WUHU216HW,2013-10-19 15:53:00,
2013-10-19 11:54:00,63.0,49.3,29.94,North,0,0.0,0.0,61,0.00,,,0.00,WUHU216HW,2013-10-19 15:54:00,
2013-10-19 11:55:00,63.0,49.3,29.94,North,0,0.0,0.0,61,0.00,,,0.00,WUHU216HW,2013-10-19 15:55:00,
2013-10-19 11:56:00,63.0,49.3,29.93,North,0,0.0,0.0,61,0.00,,,0.00,WUHU216HW,2013-10-19 15:56:00,
2013-10-19 11:57:00,63.0,49.8,29.93,North,0,0.0,0.0,62,0.00,,,0.00,WUHU216HW,2013-10-19 15:57:00,
2013-10-19 11:58:00,63.0,49.8,29.93,North,0,0.0,0.0,62,0.00,,,0.00,WUHU216HW,2013-10-19 15:58:00,
2013-10-19 11:59:00,63.0,49.8,29.93,North,0,0.0,0.0,62,0.00,,,0.00,WUHU216HW,2013-10-19 15:59:00,
2013-10-19 12:01:00,62.8,49.1,29.93,North,0,0.0,0.0,61,0.00,,,0.00,WUHU216HW,2013-10-19 16:01:00,
2013-10-19 12:02:00,62.6,48.6,29.92,North,0,0.0,0.0,60,0.00,,,0.00,WUHU216HW,2013-10-19 16:02:00,
2013-10-19 12:03:00,62.6,49.1,29.92,North,0,0.0,0.0,61,0.00,,,0.00,WUHU216HW,2013-10-19 16:03:00,
2013-10-19 12:04:00,62.6,49.1,29.93,North,0,0.0,0.0,61,0.00,,,0.00,WUHU216HW,2013-10-19 16:04:00,
2013-10-19 12:05:00,62.6,49.1,29.93,North,0,0.0,0.0,61,0.00,,,0.00,WUHU216HW,2013-10-19 16:05:00,
2013-10-19 12:06:00,62.5,49.2,29.93,North,0,0.0,0.0,62,0.00,,,0.00,WUHU216HW,2013-10-19 16:06:00,
2013-10-19 12:08:00,62.5,49.2,29.92,North,0,0.0,0.0,62,0.00,,,0.00,WUHU216HW,2013-10-19 16:08:00,
2013-10-19 12:09:00,62.5,49.2,29.92,North,0,0.0,0.0,62,0.00,,,0.00,WUHU216HW,2013-10-19 16:09:00,
2013-10-19 12:10:00,62.3,49.5,29.92,North,0,0.0,0.0,63,0.00,,,0.00,WUHU216HW,2013-10-19 16:10:00,
2013-10-19 12:11:00,62.3,50.0,29.92,North,0,0.0,0.0,64,0.00,,,0.00,WUHU216HW,2013-10-19 16:11:00,
2013-10-19 12:13:00,62.5,50.1,29.93,North,0,0.0,0.0,64,0.00,,,0.00,WUHU216HW,2013-10-19 16:13:00,
2013-10-19 12:14:00,62.5,50.1,29.93,North,0,0.0,0.0,64,0.00,,,0.00,WUHU216HW,2013-10-19 16:14:00,
2013-10-19 12:15:00,62.5,50.1,29.93,North,0,0.0,0.0,64,0.00,,,0.00,WUHU216HW,2013-10-19 16:15:00,
2013-10-19 12:16:00,62.6,50.2,29.93,North,0,0.0,0.0,64,0.00,,,0.00,WUHU216HW,2013-10-19 16:16:00,
2013-10-19 12:18:00,62.8,50.4,29.93,North,0,0.0,0.0,64,0.00,,,0.00,WUHU216HW,2013-10-19 16:18:00,
2013-10-19 12:19:00,62.8,50.1,29.93,North,0,0.0,0.0,63,0.00,,,0.00,WUHU216HW,2013-10-19 16:19:00,
2013-10-19 12:20:00,62.8,50.1,29.93,North,0,0.0,0.0,63,0.00,,,0.00,WUHU216HW,2013-10-19 16:20:00,
2013-10-19 12:22:00,63.0,50.6,29.93,North,0,0.0,0.0,64,0.00,,,0.00,WUHU216HW,2013-10-19 16:22:00,
2013-10-19 12:23:00,63.2,50.3,29.92,North,0,0.0,0.0,63,0.00,,,0.00,WUHU216HW,2013-10-19 16:23:00,
2013-10-19 12:24:00,63.2,50.8,29.92,North,0,0.0,0.0,64,0.00,,,0.00,WUHU216HW,2013-10-19 16:24:00,
2013-10-19 12:25:00,63.4,51.0,29.93,North,0,0.0,0.0,64,0.00,,,0.00,WUHU216HW,2013-10-19 16:25:00,
2013-10-19 12:28:00,63.4,49.7,29.92,North,0,0.0,0.0,61,0.00,,,0.00,WUHU216HW,2013-10-19 16:28:00,
2013-10-19 12:29:00,63.5,49.9,29.93,North,0,0.0,0.0,61,0.00,,,0.00,WUHU216HW,2013-10-19 16:29:00,
2013-10-19 12:30:00,63.5,50.2,29.93,North,0,0.0,0.0,62,0.00,,,0.00,WUHU216HW,2013-10-19 16:30:00,
2013-10-19 12:33:00,63.7,50.9,29.92,North,0,0.0,0.0,63,0.00,,,0.00,WUHU216HW,2013-10-19 16:33:00,
2013-10-19 12:34:00,63.7,50.9,29.92,North,0,0.0,0.0,63,0.00,,,0.00,WUHU216HW,2013-10-19 16:34:00,
2013-10-19 12:35:00,63.9,50.6,29.92,North,0,0.0,0.0,62,0.00,,,0.00,WUHU216HW,2013-10-19 16:35:00,
2013-10-19 12:36:00,64.1,50.8,29.92,North,0,0.0,0.0,62,0.00,,,0.00,WUHU216HW,2013-10-19 16:36:00,
2013-10-19 12:39:00,64.1,50.8,29.91,North,0,0.0,0.0,62,0.00,,,0.00,WUHU216HW,2013-10-19 16:39:00,
2013-10-19 12:40:00,64.3,51.0,29.91,North,0,0.0,0.0,62,0.00,,,0.00,WUHU216HW,2013-10-19 16:40:00,
2013-10-19 12:41:00,64.3,51.0,29.91,North,0,0.0,0.0,62,0.00,,,0.00,WUHU216HW,2013-10-19 16:41:00,
2013-10-19 12:44:00,64.4,50.7,29.90,North,0,0.0,0.0,61,0.00,,,0.00,WUHU216HW,2013-10-19 16:44:00,
2013-10-19 12:45:00,64.4,50.7,29.90,North,0,0.0,0.0,61,0.00,,,0.00,WUHU216HW,2013-10-19 16:45:00,
2013-10-19 12:46:00,64.6,50.9,29.90,North,0,0.0,0.0,61,0.00,,,0.00,WUHU216HW,2013-10-19 16:46:00,
2013-10-19 12:49:00,64.6,50.4,29.90,North,0,0.0,0.0,60,0.00,,,0.00,WUHU216HW,2013-10-19 16:49:00,
2013-10-19 12:50:00,64.4,50.2,29.90,North,0,0.0,0.0,60,0.00,,,0.00,WUHU216HW,2013-10-19 16:50:00,
2013-10-19 12:51:00,64.6,50.4,29.90,North,0,0.0,0.0,60,0.00,,,0.00,WUHU216HW,2013-10-19 16:51:00,
2013-10-19 12:52:00,64.6,50.4,29.90,North,0,0.0,0.0,60,0.00,,,0.00,WUHU216HW,2013-10-19 16:52:00,
2013-10-19 12:54:00,64.4,50.2,29.90,North,0,0.0,0.0,60,0.00,,,0.00,WUHU216HW,2013-10-19 16:54:00,
2013-10-19 12:55:00,64.6,50.4,29.90,North,0,0.0,0.0,60,0.00,,,0.00,WUHU216HW,2013-10-19 16:55:00,
2013-10-19 12:56:00,64.4,50.2,29.90,North,0,0.0,0.0,60,0.00,,,0.00,WUHU216HW,2013-10-19 16:56:00,
2013-10-19 12:57:00,64.4,50.7,29.90,North,0,0.0,0.0,61,0.00,,,0.00,WUHU216HW,2013-10-19 16:57:00,
2013-10-19 13:00:00,64.4,50.7,29.90,North,0,0.0,0.0,61,0.00,,,0.00,WUHU216HW,2013-10-19 17:00:00,
2013-10-19 13:01:00,64.6,50.9,29.90,North,0,0.0,0.0,61,0.00,,,0.00,WUHU216HW,2013-10-19 17:01:00,
2013-10-19 13:02:00,64.6,50.9,29.90,North,0,0.0,0.0,61,0.00,,,0.00,WUHU216HW,2013-10-19 17:02:00,
2013-10-19 13:05:00,64.6,51.3,29.90,North,0,0.0,0.0,62,0.00,,,0.00,WUHU216HW,2013-10-19 17:05:00,
2013-10-19 13:06:00,64.4,51.1,29.90,North,0,0.0,0.0,62,0.00,,,0.00,WUHU216HW,2013-10-19 17:06:00,
2013-10-19 13:07:00,64.6,50.9,29.90,North,0,0.0,0.0,61,0.00,,,0.00,WUHU216HW,2013-10-19 17:07:00,
2013-10-19 13:10:00,64.6,51.3,29.90,North,0,0.0,0.0,62,0.00,,,0.00,WUHU216HW,2013-10-19 17:10:00,
2013-10-19 13:12:00,64.4,50.7,29.90,North,0,0.0,0.0,61,0.00,,,0.00,WUHU216HW,2013-10-19 17:12:00,
2013-10-19 13:15:00,64.3,50.5,29.91,North,0,0.0,0.0,61,0.00,,,0.00,WUHU216HW,2013-10-19 17:15:00,
2013-10-19 13:17:00,64.1,50.3,29.90,North,0,0.0,0.0,61,0.00,,,0.00,WUHU216HW,2013-10-19 17:17:00,
2013-10-19 13:20:00,63.9,50.1,29.91,North,0,0.0,0.0,61,0.00,,,0.00,WUHU216HW,2013-10-19 17:20:00,
2013-10-19 13:21:00,63.9,50.6,29.90,North,0,0.0,0.0,62,0.00,,,0.00,WUHU216HW,2013-10-19 17:21:00,
2013-10-19 13:22:00,63.9,50.6,29.90,North,0,0.0,0.0,62,0.00,,,0.00,WUHU216HW,2013-10-19 17:22:00,
2013-10-19 13:23:00,63.9,50.6,29.91,North,0,0.0,0.0,62,0.00,,,0.00,WUHU216HW,2013-10-19 17:23:00,
2013-10-19 13:26:00,63.9,50.6,29.90,North,0,0.0,0.0,62,0.00,,,0.00,WUHU216HW,2013-10-19 17:26:00,
2013-10-19 13:27:00,63.9,50.6,29.91,North,0,0.0,0.0,62,0.00,,,0.00,WUHU216HW,2013-10-19 17:27:00,
2013-10-19 13:28:00,63.7,50.1,29.91,North,0,0.0,0.0,61,0.00,,,0.00,WUHU216HW,2013-10-19 17:28:00,
2013-10-19 13:31:00,63.7,50.1,29.91,North,0,0.0,0.0,61,0.00,,,0.00,WUHU216HW,2013-10-19 17:31:00,
2013-10-19 13:32:00,63.7,50.1,29.91,North,0,0.0,0.0,61,0.00,,,0.00,WUHU216HW,2013-10-19 17:32:00,
2013-10-19 13:33:00,63.7,50.1,29.91,North,0,0.0,0.0,61,0.00,,,0.00,WUHU216HW,2013-10-19 17:33:00,
2013-10-19 13:36:00,63.5,49.4,29.91,North,0,0.0,0.0,60,0.00,,,0.00,WUHU216HW,2013-10-19 17:36:00,
2013-10-19 13:37:00,63.5,49.4,29.91,North,0,0.0,0.0,60,0.00,,,0.00,WUHU216HW,2013-10-19 17:37:00,
2013-10-19 13:38:00,63.4,49.2,29.91,North,0,0.0,0.0,60,0.00,,,0.00,WUHU216HW,2013-10-19 17:38:00,
2013-10-19 13:39:00,63.4,49.7,29.91,North,0,0.0,0.0,61,0.00,,,0.00,WUHU216HW,2013-10-19 17:39:00,
2013-10-19 13:41:00,63.2,49.5,29.90,North,0,0.0,0.0,61,0.00,,,0.00,WUHU216HW,2013-10-19 17:41:00,
2013-10-19 13:43:00,63.2,49.5,29.90,North,0,0.0,0.0,61,0.00,,,0.00,WUHU216HW,2013-10-19 17:43:00,
2013-10-19 13:44:00,63.0,49.8,29.90,North,0,0.0,0.0,62,0.00,,,0.00,WUHU216HW,2013-10-19 17:44:00,
2013-10-19 13:45:00,63.0,49.8,29.90,North,0,0.0,0.0,62,0.00,,,0.00,WUHU216HW,2013-10-19 17:45:00,
2013-10-19 13:46:00,63.0,49.8,29.90,North,0,0.0,0.0,62,0.00,,,0.00,WUHU216HW,2013-10-19 17:46:00,
2013-10-19 13:48:00,63.0,49.8,29.90,North,0,0.0,0.0,62,0.00,,,0.00,WUHU216HW,2013-10-19 17:48:00,
2013-10-19 13:49:00,63.0,49.8,29.90,North,0,0.0,0.0,62,0.00,,,0.00,WUHU216HW,2013-10-19 17:49:00,
2013-10-19 13:50:00,63.0,49.8,29.90,North,0,0.0,0.0,62,0.00,,,0.00,WUHU216HW,2013-10-19 17:50:00,
2013-10-19 13:52:00,63.0,49.8,29.90,North,0,0.0,0.0,62,0.00,,,0.00,WUHU216HW,2013-10-19 17:52:00,
2013-10-19 13:53:00,63.0,49.8,29.89,North,0,0.0,0.0,62,0.00,,,0.00,WUHU216HW,2013-10-19 17:53:00,
2013-10-19 13:54:00,63.0,49.8,29.89,North,0,0.0,0.0,62,0.00,,,0.00,WUHU216HW,2013-10-19 17:54:00,
2013-10-19 13:55:00,63.0,49.8,29.89,North,0,0.0,0.0,62,0.00,,,0.00,WUHU216HW,2013-10-19 17:55:00,
2013-10-19 13:57:00,63.0,49.8,29.89,North,0,0.0,0.0,62,0.00,,,0.00,WUHU216HW,2013-10-19 17:57:00,
2013-10-19 13:58:00,63.0,50.2,29.89,North,0,0.0,0.0,63,0.00,,,0.00,WUHU216HW,2013-10-19 17:58:00,
2013-10-19 13:59:00,63.0,50.2,29.88,North,0,0.0,0.0,63,0.00,,,0.00,WUHU216HW,2013-10-19 17:59:00,
2013-10-19 14:01:00,63.0,50.2,29.88,North,0,0.0,0.0,63,0.00,,,0.00,WUHU216HW,2013-10-19 18:01:00,
2013-10-19 14:02:00,63.0,50.2,29.88,North,0,0.0,0.0,63,0.00,,,0.00,WUHU216HW,2013-10-19 18:02:00,
2013-10-19 14:03:00,63.0,50.2,29.88,North,0,0.0,0.0,63,0.00,,,0.00,WUHU216HW,2013-10-19 18:03:00,
2013-10-19 14:04:00,62.8,50.1,29.88,North,0,0.0,0.0,63,0.00,,,0.00,WUHU216HW,2013-10-19 18:04:00,
2013-10-19 14:06:00,62.8,50.1,29.88,North,0,0.0,0.0,63,0.00,,,0.00,WUHU216HW,2013-10-19 18:06:00,
2013-10-19 14:07:00,62.6,49.4,29.88,North,0,0.0,0.0,62,0.00,,,0.00,WUHU216HW,2013-10-19 18:07:00,
2013-10-19 14:08:00,62.6,49.9,29.88,North,0,0.0,0.0,63,0.00,,,0.00,WUHU216HW,2013-10-19 18:08:00,
2013-10-19 14:09:00,62.8,50.1,29.88,North,0,0.0,0.0,63,0.00,,,0.00,WUHU216HW,2013-10-19 18:09:00,
2013-10-19 14:11:00,62.6,49.9,29.88,North,0,0.0,0.0,63,0.00,,,0.00,WUHU216HW,2013-10-19 18:11:00,
2013-10-19 14:12:00,62.6,49.9,29.88,North,0,0.0,0.0,63,0.00,,,0.00,WUHU216HW,2013-10-19 18:12:00,
2013-10-19 14:14:00,62.6,49.9,29.87,North,0,0.0,0.0,63,0.00,,,0.00,WUHU216HW,2013-10-19 18:14:00,
2013-10-19 14:15:00,62.6,49.9,29.87,North,0,0.0,0.0,63,0.00,,,0.00,WUHU216HW,2013-10-19 18:15:00,
2013-10-19 14:17:00,62.6,50.2,29.87,North,0,0.0,0.0,64,0.00,,,0.00,WUHU216HW,2013-10-19 18:17:00,
2013-10-19 14:19:00,62.6,50.2,29.87,North,0,0.0,0.0,64,0.00,,,0.00,WUHU216HW,2013-10-19 18:19:00,
2013-10-19 14:20:00,62.8,50.4,29.87,North,0,0.0,0.0,64,0.00,,,0.00,WUHU216HW,2013-10-19 18:20:00,
2013-10-19 14:22:00,62.8,50.4,29.88,North,0,0.0,0.0,64,0.00,,,0.00,WUHU216HW,2013-10-19 18:22:00,
2013-10-19 14:24:00,62.8,50.4,29.88,North,0,0.0,0.0,64,0.00,,,0.00,WUHU216HW,2013-10-19 18:24:00,
2013-10-19 14:25:00,62.8,50.4,29.87,North,0,0.0,0.0,64,0.00,,,0.00,WUHU216HW,2013-10-19 18:25:00,
2013-10-19 14:27:00,62.6,49.9,29.87,North,0,0.0,0.0,63,0.00,,,0.00,WUHU216HW,2013-10-19 18:27:00,
2013-10-19 14:28:00,62.6,49.9,29.87,North,0,0.0,0.0,63,0.00,,,0.00,WUHU216HW,2013-10-19 18:28:00,
2013-10-19 14:29:00,62.6,49.9,29.87,North,0,0.0,0.0,63,0.00,,,0.00,WUHU216HW,2013-10-19 18:29:00,
2013-10-19 14:30:00,62.5,50.1,29.88,North,0,0.0,0.0,64,0.00,,,0.00,WUHU216HW,2013-10-19 18:30:00,
2013-10-19 14:31:00,62.5,50.1,29.88,North,0,0.0,0.0,64,0.00,,,0.00,WUHU216HW,2013-10-19 18:31:00,
2013-10-19 14:32:00,62.5,50.1,29.88,North,0,0.0,0.0,64,0.00,,,0.00,WUHU216HW,2013-10-19 18:32:00,
2013-10-19 14:33:00,62.5,50.1,29.88,North,0,0.0,0.0,64,0.00,,,0.00,WUHU216HW,2013-10-19 18:33:00,
2013-10-19 14:34:00,62.5,50.1,29.88,North,0,0.0,0.0,64,0.00,,,0.00,WUHU216HW,2013-10-19 18:34:00,
2013-10-19 14:35:00,62.5,50.1,29.88,North,0,0.0,0.0,64,0.00,,,0.00,WUHU216HW,2013-10-19 18:35:00,
2013-10-19 14:36:00,62.5,50.1,29.88,North,0,0.0,0.0,64,0.00,,,0.00,WUHU216HW,2013-10-19 18:36:00,
2013-10-19 14:37:00,62.6,50.2,29.88,North,0,0.0,0.0,64,0.00,,,0.00,WUHU216HW,2013-10-19 18:37:00,
2013-10-19 14:38:00,62.6,50.2,29.87,North,0,0.0,0.0,64,0.00,,,0.00,WUHU216HW,2013-10-19 18:38:00,
2013-10-19 14:39:00,62.6,49.9,29.87,North,0,0.0,0.0,63,0.00,,,0.00,WUHU216HW,2013-10-19 18:39:00,
2013-10-19 14:40:00,62.6,49.9,29.87,North,0,0.0,0.0,63,0.00,,,0.00,WUHU216HW,2013-10-19 18:40:00,
2013-10-19 14:41:00,62.6,49.9,29.87,North,0,0.0,0.0,63,0.00,,,0.00,WUHU216HW,2013-10-19 18:41:00,
2013-10-19 14:43:00,62.8,50.4,29.87,North,0,0.0,0.0,64,0.00,,,0.00,WUHU216HW,2013-10-19 18:43:00,
2013-10-19 14:45:00,63.0,50.6,29.87,North,0,0.0,0.0,64,0.00,,,0.00,WUHU216HW,2013-10-19 18:45:00,
2013-10-19 14:47:00,63.4,51.0,29.87,North,0,0.0,0.0,64,0.00,,,0.00,WUHU216HW,2013-10-19 18:47:00,
2013-10-19 14:48:00,63.4,51.0,29.87,North,0,0.0,0.0,64,0.00,,,0.00,WUHU216HW,2013-10-19 18:48:00,
2013-10-19 14:50:00,63.5,50.7,29.87,North,0,0.0,0.0,63,0.00,,,0.00,WUHU216HW,2013-10-19 18:50:00,
2013-10-19 14:51:00,63.5,50.7,29.87,North,0,0.0,0.0,63,0.00,,,0.00,WUHU216HW,2013-10-19 18:51:00,
2013-10-19 14:53:00,63.4,50.1,29.87,North,0,0.0,0.0,62,0.00,,,0.00,WUHU216HW,2013-10-19 18:53:00,
2013-10-19 14:55:00,63.2,50.0,29.87,North,0,0.0,0.0,62,0.00,,,0.00,WUHU216HW,2013-10-19 18:55:00,
2013-10-19 14:56:00,63.2,50.0,29.87,North,0,0.0,0.0,62,0.00,,,0.00,WUHU216HW,2013-10-19 18:56:00,
2013-10-19 14:58:00,63.0,49.8,29.86,North,0,0.0,0.0,62,0.00,,,0.00,WUHU216HW,2013-10-19 18:58:00,
2013-10-19 15:00:00,63.0,50.2,29.86,North,0,0.0,0.0,63,0.00,,,0.00,WUHU216HW,2013-10-19 19:00:00,
2013-10-19 15:01:00,63.0,50.2,29.86,North,0,0.0,0.0,63,0.00,,,0.00,WUHU216HW,2013-10-19 19:01:00,
2013-10-19 15:02:00,62.8,50.1,29.86,North,0,0.0,0.0,63,0.00,,,0.00,WUHU216HW,2013-10-19 19:02:00,
2013-10-19 15:03:00,62.8,50.1,29.86,North,0,0.0,0.0,63,0.00,,,0.00,WUHU216HW,2013-10-19 19:03:00,
2013-10-19 15:04:00,62.8,50.1,29.86,North,0,0.0,0.0,63,0.00,,,0.00,WUHU216HW,2013-10-19 19:04:00,
2013-10-19 15:05:00,62.8,50.1,29.86,North,0,0.0,0.0,63,0.00,,,0.00,WUHU216HW,2013-10-19 19:05:00,
2013-10-19 15:06:00,62.8,50.1,29.85,North,0,0.0,0.0,63,0.00,,,0.00,WUHU216HW,2013-10-19 19:06:00,
2013-10-19 15:07:00,62.8,50.4,29.86,North,0,0.0,0.0,64,0.00,,,0.00,WUHU216HW,2013-10-19 19:07:00,
2013-10-19 15:08:00,62.6,50.2,29.85,North,0,0.0,0.0,64,0.00,,,0.00,WUHU216HW,2013-10-19 19:08:00,
2013-10-19 15:09:00,62.6,50.2,29.85,North,0,0.0,0.0,64,0.00,,,0.00,WUHU216HW,2013-10-19 19:09:00,
2013-10-19 15:10:00,62.6,50.2,29.85,North,0,0.0,0.0,64,0.00,,,0.00,WUHU216HW,2013-10-19 19:10:00,
2013-10-19 15:11:00,62.8,50.4,29.85,North,0,0.0,0.0,64,0.00,,,0.00,WUHU216HW,2013-10-19 19:11:00,
2013-10-19 15:12:00,62.6,50.2,29.86,North,0,0.0,0.0,64,0.00,,,0.00,WUHU216HW,2013-10-19 19:12:00,
2013-10-19 15:13:00,62.6,50.2,29.86,North,0,0.0,0.0,64,0.00,,,0.00,WUHU216HW,2013-10-19 19:13:00,
2013-10-19 15:14:00,62.6,50.2,29.86,North,0,0.0,0.0,64,0.00,,,0.00,WUHU216HW,2013-10-19 19:14:00,
2013-10-19 15:15:00,62.6,50.2,29.86,North,0,0.0,0.0,64,0.00,,,0.00,WUHU216HW,2013-10-19 19:15:00,
2013-10-19 15:16:00,62.6,50.2,29.86,North,0,0.0,0.0,64,0.00,,,0.00,WUHU216HW,2013-10-19 19:16:00,
2013-10-19 15:17:00,62.5,50.5,29.86,North,0,0.0,0.0,65,0.00,,,0.00,WUHU216HW,2013-10-19 19:17:00,
2013-10-19 15:18:00,62.5,50.5,29.85,North,0,0.0,0.0,65,0.00,,,0.00,WUHU216HW,2013-10-19 19:18:00,
2013-10-19 15:20:00,62.5,50.5,29.85,North,0,0.0,0.0,65,0.00,,,0.00,WUHU216HW,2013-10-19 19:20:00,
2013-10-19 15:21:00,62.5,50.5,29.85,North,0,0.0,0.0,65,0.00,,,0.00,WUHU216HW,2013-10-19 19:21:00,
2013-10-19 15:22:00,62.6,50.7,29.85,North,0,0.0,0.0,65,0.00,,,0.00,WUHU216HW,2013-10-19 19:22:00,
2013-10-19 15:23:00,62.6,50.7,29.85,North,0,0.0,0.0,65,0.00,,,0.00,WUHU216HW,2013-10-19 19:23:00,
2013-10-19 15:25:00,62.5,50.1,29.84,North,0,0.0,0.0,64,0.00,,,0.00,WUHU216HW,2013-10-19 19:25:00,
2013-10-19 15:26:00,62.5,50.5,29.84,North,0,0.0,0.0,65,0.00,,,0.00,WUHU216HW,2013-10-19 19:26:00,
2013-10-19 15:27:00,62.5,50.5,29.84,North,0,0.0,0.0,65,0.00,,,0.00,WUHU216HW,2013-10-19 19:27:00,
2013-10-19 15:28:00,62.5,50.5,29.85,North,0,0.0,0.0,65,0.00,,,0.00,WUHU216HW,2013-10-19 19:28:00,
2013-10-19 15:30:00,62.5,50.5,29.85,North,0,0.0,0.0,65,0.00,,,0.00,WUHU216HW,2013-10-19 19:30:00,
2013-10-19 15:31:00,62.5,50.5,29.85,North,0,0.0,0.0,65,0.00,,,0.00,WUHU216HW,2013-10-19 19:31:00,
2013-10-19 15:32:00,62.3,50.3,29.85,North,0,0.0,0.0,65,0.00,,,0.00,WUHU216HW,2013-10-19 19:32:00,
2013-10-19 15:33:00,62.3,50.3,29.85,North,0,0.0,0.0,65,0.00,,,0.00,WUHU216HW,2013-10-19 19:33:00,
2013-10-19 15:35:00,62.3,50.3,29.85,North,0,0.0,0.0,65,0.00,,,0.00,WUHU216HW,2013-10-19 19:35:00,
2013-10-19 15:36:00,62.5,50.5,29.85,North,0,0.0,0.0,65,0.00,,,0.00,WUHU216HW,2013-10-19 19:36:00,
2013-10-19 15:38:00,62.3,50.3,29.85,North,0,0.0,0.0,65,0.00,,,0.00,WUHU216HW,2013-10-19 19:38:00,
2013-10-19 15:41:00,62.3,50.3,29.84,North,0,0.0,0.0,65,0.00,,,0.00,WUHU216HW,2013-10-19 19:41:00,
2013-10-19 15:43:00,62.3,50.3,29.84,North,0,0.0,0.0,65,0.00,,,0.00,WUHU216HW,2013-10-19 19:43:00,
2013-10-19 15:46:00,62.3,50.3,29.85,North,0,0.0,0.0,65,0.00,,,0.00,WUHU216HW,2013-10-19 19:46:00,
2013-10-19 15:48:00,62.3,50.3,29.85,North,0,0.0,0.0,65,0.00,,,0.00,WUHU216HW,2013-10-19 19:48:00,
2013-10-19 15:49:00,62.3,50.3,29.85,North,0,0.0,0.0,65,0.00,,,0.00,WUHU216HW,2013-10-19 19:49:00,
2013-10-19 15:51:00,62.3,50.3,29.84,North,0,0.0,0.0,65,0.00,,,0.00,WUHU216HW,2013-10-19 19:51:00,
2013-10-19 15:53:00,62.3,50.3,29.83,North,0,0.0,0.0,65,0.00,,,0.00,WUHU216HW,2013-10-19 19:53:00,
2013-10-19 15:54:00,62.3,50.3,29.83,North,0,0.0,0.0,65,0.00,,,0.00,WUHU216HW,2013-10-19 19:54:00,
2013-10-19 15:56:00,62.3,50.3,29.83,North,0,0.0,0.0,65,0.00,,,0.00,WUHU216HW,2013-10-19 19:56:00,
2013-10-19 15:57:00,62.3,50.3,29.83,North,0,0.0,0.0,65,0.00,,,0.00,WUHU216HW,2013-10-19 19:57:00,
2013-10-19 15:58:00,62.3,50.3,29.83,North,0,0.0,0.0,65,0.00,,,0.00,WUHU216HW,2013-10-19 19:58:00,
2013-10-19 15:59:00,62.3,50.3,29.83,North,0,0.0,0.0,65,0.00,,,0.00,WUHU216HW,2013-10-19 19:59:00,
2013-10-19 16:02:00,62.3,50.8,29.83,North,0,0.0,0.0,66,0.00,,,0.00,WUHU216HW,2013-10-19 20:02:00,
2013-10-19 16:04:00,62.3,50.8,29.83,North,0,0.0,0.0,66,0.00,,,0.00,WUHU216HW,2013-10-19 20:04:00,
2013-10-19 16:05:00,62.3,50.8,29.83,North,0,0.0,0.0,66,0.00,,,0.00,WUHU216HW,2013-10-19 20:05:00,
2013-10-19 16:07:00,62.5,50.5,29.83,North,0,0.0,0.0,65,0.00,,,0.00,WUHU216HW,2013-10-19 20:07:00,
2013-10-19 16:08:00,62.5,50.5,29.83,North,0,0.0,0.0,65,0.00,,,0.00,WUHU216HW,2013-10-19 20:08:00,
2013-10-19 16:09:00,62.3,50.3,29.83,North,0,0.0,0.0,65,0.00,,,0.00,WUHU216HW,2013-10-19 20:09:00,
2013-10-19 16:10:00,62.3,50.8,29.83,North,0,0.0,0.0,66,0.00,,,0.00,WUHU216HW,2013-10-19 20:10:00,
2013-10-19 16:12:00,62.3,50.8,29.83,North,0,0.0,0.0,66,0.00,,,0.00,WUHU216HW,2013-10-19 20:12:00,
2013-10-19 16:13:00,62.3,50.8,29.83,North,0,0.0,0.0,66,0.00,,,0.00,WUHU216HW,2013-10-19 20:13:00,
2013-10-19 16:14:00,62.3,50.8,29.83,North,0,0.0,0.0,66,0.00,,,0.00,WUHU216HW,2013-10-19 20:14:00,
2013-10-19 16:15:00,62.3,50.8,29.83,North,0,0.0,0.0,66,0.00,,,0.00,WUHU216HW,2013-10-19 20:15:00,
2013-10-19 16:17:00,62.3,50.8,29.83,North,0,0.0,0.0,66,0.00,,,0.00,WUHU216HW,2013-10-19 20:17:00,
2013-10-19 16:18:00,62.1,50.6,29.83,North,0,0.0,0.0,66,0.00,,,0.00,WUHU216HW,2013-10-19 20:18:00,
2013-10-19 16:19:00,62.1,50.6,29.83,North,0,0.0,0.0,66,0.00,,,0.00,WUHU216HW,2013-10-19 20:19:00,
2013-10-19 16:21:00,61.9,50.4,29.82,North,0,0.0,0.0,66,0.00,,,0.00,WUHU216HW,2013-10-19 20:21:00,
2013-10-19 16:22:00,61.9,50.4,29.83,North,0,0.0,0.0,66,0.00,,,0.00,WUHU216HW,2013-10-19 20:22:00,
2013-10-19 16:23:00,61.9,50.4,29.82,North,0,0.0,0.0,66,0.00,,,0.00,WUHU216HW,2013-10-19 20:23:00,
2013-10-19 16:24:00,61.9,50.4,29.82,North,0,0.0,0.0,66,0.00,,,0.00,WUHU216HW,2013-10-19 20:24:00,
2013-10-19 16:26:00,61.9,50.9,29.82,North,0,0.0,0.0,67,0.00,,,0.00,WUHU216HW,2013-10-19 20:26:00,
2013-10-19 16:27:00,61.9,50.9,29.82,North,0,0.0,0.0,67,0.00,,,0.00,WUHU216HW,2013-10-19 20:27:00,
2013-10-19 16:28:00,61.9,50.9,29.82,North,0,0.0,0.0,67,0.00,,,0.00,WUHU216HW,2013-10-19 20:28:00,
2013-10-19 16:29:00,61.9,50.9,29.82,North,0,0.0,0.0,67,0.00,,,0.00,WUHU216HW,2013-10-19 20:29:00,
2013-10-19 16:31:00,61.7,50.7,29.82,North,0,0.0,0.0,67,0.00,,,0.00,WUHU216HW,2013-10-19 20:31:00,
2013-10-19 16:32:00,61.9,50.9,29.82,North,0,0.0,0.0,67,0.00,,,0.00,WUHU216HW,2013-10-19 20:32:00,
2013-10-19 16:33:00,61.9,50.9,29.81,North,0,0.0,0.0,67,0.00,,,0.00,WUHU216HW,2013-10-19 20:33:00,
2013-10-19 16:34:00,61.7,50.7,29.81,North,0,0.0,0.0,67,0.00,,,0.00,WUHU216HW,2013-10-19 20:34:00,
2013-10-19 16:37:00,61.7,51.1,29.81,North,0,0.0,0.0,68,0.00,,,0.00,WUHU216HW,2013-10-19 20:37:00,
2013-10-19 16:38:00,61.6,50.9,29.81,North,0,0.0,0.0,68,0.00,,,0.00,WUHU216HW,2013-10-19 20:38:00,
2013-10-19 16:39:00,61.6,50.9,29.81,North,0,0.0,0.0,68,0.00,,,0.00,WUHU216HW,2013-10-19 20:39:00,
2013-10-19 16:40:00,61.6,50.9,29.81,North,0,0.0,0.0,68,0.00,,,0.00,WUHU216HW,2013-10-19 20:40:00,
2013-10-19 16:42:00,61.6,51.4,29.80,North,0,0.0,0.0,69,0.00,,,0.00,WUHU216HW,2013-10-19 20:42:00,
2013-10-19 16:43:00,61.6,51.4,29.80,North,0,0.0,0.0,69,0.00,,,0.00,WUHU216HW,2013-10-19 20:43:00,
2013-10-19 16:44:00,61.6,51.4,29.80,North,0,0.0,0.0,69,0.00,,,0.00,WUHU216HW,2013-10-19 20:44:00,
2013-10-19 16:45:00,61.6,51.4,29.81,North,0,0.0,0.0,69,0.00,,,0.00,WUHU216HW,2013-10-19 20:45:00,
2013-10-19 16:47:00,61.4,51.2,29.81,North,0,0.0,0.0,69,0.00,,,0.00,WUHU216HW,2013-10-19 20:47:00,
2013-10-19 16:48:00,61.4,51.2,29.81,North,0,0.0,0.0,69,0.00,,,0.00,WUHU216HW,2013-10-19 20:48:00,
2013-10-19 16:49:00,61.4,51.2,29.81,North,0,0.0,0.0,69,0.00,,,0.00,WUHU216HW,2013-10-19 20:49:00,
2013-10-19 16:50:00,61.4,51.2,29.81,North,0,0.0,0.0,69,0.00,,,0.00,WUHU216HW,2013-10-19 20:50:00,
2013-10-19 16:53:00,61.4,51.2,29.83,North,0,0.0,0.0,69,0.00,,,0.00,WUHU216HW,2013-10-19 20:53:00,
2013-10-19 16:54:00,61.4,51.2,29.83,North,0,0.0,0.0,69,0.00,,,0.00,WUHU216HW,2013-10-19 20:54:00,
2013-10-19 16:55:00,61.4,51.2,29.83,North,0,0.0,0.0,69,0.00,,,0.00,WUHU216HW,2013-10-19 20:55:00,
2013-10-19 16:56:00,61.4,51.2,29.83,North,0,0.0,0.0,69,0.00,,,0.00,WUHU216HW,2013-10-19 20:56:00,
2013-10-19 16:58:00,61.4,51.2,29.83,North,0,0.0,0.0,69,0.00,,,0.00,WUHU216HW,2013-10-19 20:58:00,
2013-10-19 16:59:00,61.4,51.2,29.83,North,0,0.0,0.0,69,0.00,,,0.00,WUHU216HW,2013-10-19 20:59:00,
2013-10-19 17:00:00,61.4,51.2,29.83,North,0,0.0,0.0,69,0.00,,,0.00,WUHU216HW,2013-10-19 21:00:00,
2013-10-19 17:01:00,61.2,51.0,29.83,North,0,0.0,0.0,69,0.00,,,0.00,WUHU216HW,2013-10-19 21:01:00,
2013-10-19 17:03:00,61.4,51.2,29.82,North,0,0.0,0.0,69,0.00,,,0.00,WUHU216HW,2013-10-19 21:03:00,
2013-10-19 17:04:00,61.2,51.0,29.82,North,0,0.0,0.0,69,0.00,,,0.00,WUHU216HW,2013-10-19 21:04:00,
2013-10-19 17:05:00,61.2,51.0,29.82,North,0,0.0,0.0,69,0.00,,,0.00,WUHU216HW,2013-10-19 21:05:00,
2013-10-19 17:06:00,61.2,51.0,29.83,North,0,0.0,0.0,69,0.00,,,0.00,WUHU216HW,2013-10-19 21:06:00,
2013-10-19 17:08:00,61.2,51.0,29.83,North,0,0.0,0.0,69,0.00,,,0.00,WUHU216HW,2013-10-19 21:08:00,
2013-10-19 17:09:00,61.0,50.9,29.83,North,0,0.0,0.0,69,0.00,,,0.00,WUHU216HW,2013-10-19 21:09:00,
2013-10-19 17:11:00,61.0,50.9,29.83,North,0,0.0,0.0,69,0.00,,,0.00,WUHU216HW,2013-10-19 21:11:00,
2013-10-19 17:12:00,61.0,50.9,29.83,North,0,0.0,0.0,69,0.00,,,0.00,WUHU216HW,2013-10-19 21:12:00,
2013-10-19 17:13:00,61.0,50.9,29.83,North,0,0.0,0.0,69,0.00,,,0.00,WUHU216HW,2013-10-19 21:13:00,
2013-10-19 17:14:00,61.0,50.9,29.84,North,0,0.0,0.0,69,0.00,,,0.00,WUHU216HW,2013-10-19 21:14:00,
2013-10-19 17:15:00,61.0,50.9,29.84,North,0,0.0,0.0,69,0.00,,,0.00,WUHU216HW,2013-10-19 21:15:00,
2013-10-19 17:16:00,60.8,50.7,29.83,North,0,0.0,0.0,69,0.00,,,0.00,WUHU216HW,2013-10-19 21:16:00,
2013-10-19 17:17:00,61.0,50.9,29.83,North,0,0.0,0.0,69,0.00,,,0.00,WUHU216HW,2013-10-19 21:17:00,
2013-10-19 17:19:00,60.8,50.7,29.83,North,0,0.0,0.0,69,0.00,,,0.00,WUHU216HW,2013-10-19 21:19:00,
2013-10-19 17:20:00,60.8,50.7,29.83,North,0,0.0,0.0,69,0.00,,,0.00,WUHU216HW,2013-10-19 21:20:00,
2013-10-19 17:21:00,60.8,50.7,29.83,North,0,0.0,0.0,69,0.00,,,0.00,WUHU216HW,2013-10-19 21:21:00,
2013-10-19 17:22:00,60.8,50.7,29.83,North,0,0.0,0.0,69,0.00,,,0.00,WUHU216HW,2013-10-19 21:22:00,
2013-10-19 17:24:00,60.8,50.7,29.83,North,0,0.0,0.0,69,0.00,,,0.00,WUHU216HW,2013-10-19 21:24:00,
2013-10-19 17:25:00,60.8,50.7,29.83,North,0,0.0,0.0,69,0.00,,,0.00,WUHU216HW,2013-10-19 21:25:00,
2013-10-19 17:26:00,60.8,50.7,29.83,North,0,0.0,0.0,69,0.00,,,0.00,WUHU216HW,2013-10-19 21:26:00,
2013-10-19 17:27:00,60.8,51.1,29.83,North,0,0.0,0.0,70,0.00,,,0.00,WUHU216HW,2013-10-19 21:27:00,
2013-10-19 17:28:00,60.8,50.7,29.83,North,0,0.0,0.0,69,0.00,,,0.00,WUHU216HW,2013-10-19 21:28:00,
2013-10-19 17:29:00,60.8,50.7,29.82,North,0,0.0,0.0,69,0.00,,,0.00,WUHU216HW,2013-10-19 21:29:00,
2013-10-19 17:30:00,60.8,50.7,29.83,North,0,0.0,0.0,69,0.00,,,0.00,WUHU216HW,2013-10-19 21:30:00,
2013-10-19 17:32:00,60.7,50.9,29.82,North,0,0.0,0.0,70,0.00,,,0.00,WUHU216HW,2013-10-19 21:32:00,
2013-10-19 17:33:00,60.7,50.9,29.82,North,0,0.0,0.0,70,0.00,,,0.00,WUHU216HW,2013-10-19 21:33:00,
2013-10-19 17:34:00,60.7,50.9,29.83,North,0,0.0,0.0,70,0.00,,,0.00,WUHU216HW,2013-10-19 21:34:00,
2013-10-19 17:35:00,60.7,50.9,29.83,North,0,0.0,0.0,70,0.00,,,0.00,WUHU216HW,2013-10-19 21:35:00,
2013-10-19 17:37:00,60.7,50.9,29.83,North,0,0.0,0.0,70,0.00,,,0.00,WUHU216HW,2013-10-19 21:37:00,
2013-10-19 17:38:00,60.7,50.9,29.83,North,0,0.0,0.0,70,0.00,,,0.00,WUHU216HW,2013-10-19 21:38:00,
2013-10-19 17:39:00,60.7,50.9,29.83,North,0,0.0,0.0,70,0.00,,,0.00,WUHU216HW,2013-10-19 21:39:00,
2013-10-19 17:40:00,60.7,51.3,29.83,North,0,0.0,0.0,71,0.00,,,0.00,WUHU216HW,2013-10-19 21:40:00,
2013-10-19 17:42:00,60.5,51.1,29.83,North,0,0.0,0.0,71,0.00,,,0.00,WUHU216HW,2013-10-19 21:42:00,
2013-10-19 17:43:00,60.5,51.1,29.82,North,0,0.0,0.0,71,0.00,,,0.00,WUHU216HW,2013-10-19 21:43:00,
2013-10-19 17:44:00,60.5,51.1,29.82,North,0,0.0,0.0,71,0.00,,,0.00,WUHU216HW,2013-10-19 21:44:00,
2013-10-19 17:45:00,60.5,51.1,29.82,North,0,0.0,0.0,71,0.00,,,0.00,WUHU216HW,2013-10-19 21:45:00,
2013-10-19 17:46:00,60.5,51.1,29.82,North,0,0.0,0.0,71,0.00,,,0.00,WUHU216HW,2013-10-19 21:46:00,
2013-10-19 17:47:00,60.5,51.1,29.82,North,0,0.0,0.0,71,0.00,,,0.00,WUHU216HW,2013-10-19 21:47:00,
2013-10-19 17:48:00,60.5,51.1,29.82,North,0,0.0,0.0,71,0.00,,,0.00,WUHU216HW,2013-10-19 21:48:00,
2013-10-19 17:49:00,60.5,51.5,29.82,North,0,0.0,0.0,72,0.00,,,0.00,WUHU216HW,2013-10-19 21:49:00,
2013-10-19 17:50:00,60.5,51.5,29.82,North,0,0.0,0.0,72,0.00,,,0.00,WUHU216HW,2013-10-19 21:50:00,
2013-10-19 17:52:00,60.3,50.9,29.81,North,0,0.0,0.0,71,0.00,,,0.00,WUHU216HW,2013-10-19 21:52:00,
2013-10-19 17:53:00,60.3,50.9,29.81,North,0,0.0,0.0,71,0.00,,,0.00,WUHU216HW,2013-10-19 21:53:00,
2013-10-19 17:54:00,60.3,50.9,29.81,North,0,0.0,0.0,71,0.00,,,0.00,WUHU216HW,2013-10-19 21:54:00,
2013-10-19 17:55:00,60.1,51.1,29.81,North,0,0.0,0.0,72,0.00,,,0.00,WUHU216HW,2013-10-19 21:55:00,
2013-10-19 17:56:00,60.1,51.1,29.81,North,0,0.0,0.0,72,0.00,,,0.00,WUHU216HW,2013-10-19 21:56:00,
2013-10-19 17:57:00,60.1,51.1,29.82,North,0,0.0,0.0,72,0.00,,,0.00,WUHU216HW,2013-10-19 21:57:00,
2013-10-19 17:58:00,60.1,51.1,29.82,North,0,0.0,0.0,72,0.00,,,0.00,WUHU216HW,2013-10-19 21:58:00,
2013-10-19 17:59:00,60.1,51.1,29.82,North,0,0.0,0.0,72,0.00,,,0.00,WUHU216HW,2013-10-19 21:59:00,
2013-10-19 18:00:00,60.1,51.1,29.82,North,0,0.0,0.0,72,0.00,,,0.00,WUHU216HW,2013-10-19 22:00:00,
2013-10-19 18:01:00,60.1,51.1,29.82,North,0,0.0,0.0,72,0.00,,,0.00,WUHU216HW,2013-10-19 22:01:00,
2013-10-19 18:03:00,59.9,50.9,29.82,North,0,0.0,0.0,72,0.00,,,0.00,WUHU216HW,2013-10-19 22:03:00,
2013-10-19 18:04:00,59.9,50.9,29.83,North,0,0.0,0.0,72,0.00,,,0.00,WUHU216HW,2013-10-19 22:04:00,
2013-10-19 18:05:00,59.9,50.9,29.83,North,0,0.0,0.0,72,0.00,,,0.00,WUHU216HW,2013-10-19 22:05:00,
2013-10-19 18:06:00,59.9,50.9,29.83,North,0,0.0,0.0,72,0.00,,,0.00,WUHU216HW,2013-10-19 22:06:00,
2013-10-19 18:08:00,59.8,51.1,29.83,North,0,0.0,0.0,73,0.00,,,0.00,WUHU216HW,2013-10-19 22:08:00,
2013-10-19 18:09:00,59.8,51.1,29.82,North,0,0.0,0.0,73,0.00,,,0.00,WUHU216HW,2013-10-19 22:09:00,
2013-10-19 18:10:00,59.8,51.1,29.82,North,0,0.0,0.0,73,0.00,,,0.00,WUHU216HW,2013-10-19 22:10:00,
2013-10-19 18:11:00,59.8,51.1,29.82,North,0,0.0,0.0,73,0.00,,,0.00,WUHU216HW,2013-10-19 22:11:00,
2013-10-19 18:13:00,59.8,51.1,29.82,North,0,0.0,0.0,73,0.00,,,0.00,WUHU216HW,2013-10-19 22:13:00,
2013-10-19 18:14:00,59.8,51.1,29.81,North,0,0.0,0.0,73,0.00,,,0.00,WUHU216HW,2013-10-19 22:14:00,
2013-10-19 18:16:00,59.6,50.9,29.81,North,0,0.0,0.0,73,0.00,,,0.00,WUHU216HW,2013-10-19 22:16:00,
2013-10-19 18:19:00,59.4,50.8,29.82,North,0,0.0,0.0,73,0.00,,,0.00,WUHU216HW,2013-10-19 22:19:00,
2013-10-19 18:21:00,59.4,51.1,29.82,North,0,0.0,0.0,74,0.00,,,0.00,WUHU216HW,2013-10-19 22:21:00,
2013-10-19 18:24:00,59.4,51.1,29.82,North,0,0.0,0.0,74,0.00,,,0.00,WUHU216HW,2013-10-19 22:24:00,
2013-10-19 18:26:00,59.4,51.1,29.81,North,0,0.0,0.0,74,0.00,,,0.00,WUHU216HW,2013-10-19 22:26:00,
2013-10-19 18:27:00,59.4,51.1,29.81,North,0,0.0,0.0,74,0.00,,,0.00,WUHU216HW,2013-10-19 22:27:00,
2013-10-19 18:29:00,59.4,51.1,29.81,North,0,0.0,0.0,74,0.00,,,0.00,WUHU216HW,2013-10-19 22:29:00,
2013-10-19 18:30:00,59.4,51.5,29.81,North,0,0.0,0.0,75,0.00,,,0.00,WUHU216HW,2013-10-19 22:30:00,
2013-10-19 18:31:00,59.4,51.5,29.81,North,0,0.0,0.0,75,0.00,,,0.00,WUHU216HW,2013-10-19 22:31:00,
2013-10-19 18:32:00,59.4,51.5,29.81,North,0,0.0,0.0,75,0.00,,,0.00,WUHU216HW,2013-10-19 22:32:00,
2013-10-19 18:34:00,59.4,51.5,29.81,North,0,0.0,0.0,75,0.00,,,0.00,WUHU216HW,2013-10-19 22:34:00,
2013-10-19 18:35:00,59.4,51.5,29.81,North,0,0.0,0.0,75,0.00,,,0.00,WUHU216HW,2013-10-19 22:35:00,
2013-10-19 18:36:00,59.4,51.5,29.81,North,0,0.0,0.0,75,0.00,,,0.00,WUHU216HW,2013-10-19 22:36:00,
2013-10-19 18:37:00,59.4,51.5,29.82,North,0,0.0,0.0,75,0.00,,,0.00,WUHU216HW,2013-10-19 22:37:00,
2013-10-19 18:39:00,59.4,51.5,29.82,North,0,0.0,0.0,75,0.00,,,0.00,WUHU216HW,2013-10-19 22:39:00,
2013-10-19 18:41:00,59.4,51.5,29.82,North,0,0.0,0.0,75,0.00,,,0.00,WUHU216HW,2013-10-19 22:41:00,
2013-10-19 18:42:00,59.4,51.5,29.82,North,0,0.0,0.0,75,0.00,,,0.00,WUHU216HW,2013-10-19 22:42:00,
2013-10-19 18:45:00,59.4,51.8,29.82,North,0,0.0,0.0,76,0.00,,,0.00,WUHU216HW,2013-10-19 22:45:00,
2013-10-19 18:46:00,59.4,51.8,29.82,North,0,0.0,0.0,76,0.00,,,0.00,WUHU216HW,2013-10-19 22:46:00,
2013-10-19 18:47:00,59.4,51.8,29.82,North,0,0.0,0.0,76,0.00,,,0.00,WUHU216HW,2013-10-19 22:47:00,
2013-10-19 18:50:00,59.4,51.8,29.82,North,0,0.0,0.0,76,0.00,,,0.00,WUHU216HW,2013-10-19 22:50:00,
2013-10-19 18:51:00,59.4,51.8,29.82,North,0,0.0,0.0,76,0.00,,,0.00,WUHU216HW,2013-10-19 22:51:00,
2013-10-19 18:52:00,59.4,51.8,29.81,North,0,0.0,0.0,76,0.00,,,0.00,WUHU216HW,2013-10-19 22:52:00,
2013-10-19 18:55:00,59.4,51.8,29.82,North,0,0.0,0.0,76,0.00,,,0.00,WUHU216HW,2013-10-19 22:55:00,
2013-10-19 18:56:00,59.4,51.8,29.82,North,0,0.0,0.0,76,0.00,,,0.00,WUHU216HW,2013-10-19 22:56:00,
2013-10-19 18:57:00,59.4,51.8,29.81,North,0,0.0,0.0,76,0.00,,,0.00,WUHU216HW,2013-10-19 22:57:00,
2013-10-19 18:58:00,59.4,52.2,29.81,North,0,0.0,0.0,77,0.00,,,0.00,WUHU216HW,2013-10-19 22:58:00,
2013-10-19 19:00:00,59.4,52.2,29.81,North,0,0.0,0.0,77,0.00,,,0.00,WUHU216HW,2013-10-19 23:00:00,
2013-10-19 19:01:00,59.4,52.2,29.81,North,0,0.0,0.0,77,0.00,,,0.00,WUHU216HW,2013-10-19 23:01:00,
2013-10-19 19:02:00,59.4,52.2,29.81,North,0,0.0,0.0,77,0.00,,,0.00,WUHU216HW,2013-10-19 23:02:00,
2013-10-19 19:03:00,59.4,52.2,29.81,North,0,0.0,0.0,77,0.00,,,0.00,WUHU216HW,2013-10-19 23:03:00,
2013-10-19 19:06:00,59.4,52.2,29.81,North,0,0.0,0.0,77,0.00,,,0.00,WUHU216HW,2013-10-19 23:06:00,
2013-10-19 19:07:00,59.4,52.2,29.81,North,0,0.0,0.0,77,0.00,,,0.00,WUHU216HW,2013-10-19 23:07:00,
2013-10-19 19:08:00,59.4,52.6,29.81,North,0,0.0,0.0,78,0.00,,,0.00,WUHU216HW,2013-10-19 23:08:00,
2013-10-19 19:09:00,59.4,52.2,29.81,North,0,0.0,0.0,77,0.00,,,0.00,WUHU216HW,2013-10-19 23:09:00,
2013-10-19 19:11:00,59.4,52.2,29.81,North,0,0.0,0.0,77,0.00,,,0.00,WUHU216HW,2013-10-19 23:11:00,
2013-10-19 19:12:00,59.4,52.6,29.81,North,0,0.0,0.0,78,0.00,,,0.00,WUHU216HW,2013-10-19 23:12:00,
2013-10-19 19:13:00,59.4,52.6,29.81,North,0,0.0,0.0,78,0.00,,,0.00,WUHU216HW,2013-10-19 23:13:00,
2013-10-19 19:14:00,59.4,52.6,29.81,North,0,0.0,0.0,78,0.00,,,0.00,WUHU216HW,2013-10-19 23:14:00,
2013-10-19 19:17:00,59.4,52.6,29.81,North,0,0.0,0.0,78,0.00,,,0.00,WUHU216HW,2013-10-19 23:17:00,
2013-10-19 19:18:00,59.4,52.6,29.81,North,0,0.0,0.0,78,0.00,,,0.00,WUHU216HW,2013-10-19 23:18:00,
2013-10-19 19:19:00,59.4,52.6,29.81,North,0,0.0,0.0,78,0.00,,,0.00,WUHU216HW,2013-10-19 23:19:00,
2013-10-19 19:22:00,59.4,52.6,29.81,North,0,0.0,0.0,78,0.00,,,0.00,WUHU216HW,2013-10-19 23:22:00,
2013-10-19 19:23:00,59.4,52.6,29.81,North,0,0.0,0.0,78,0.00,,,0.00,WUHU216HW,2013-10-19 23:23:00,
2013-10-19 19:25:00,59.4,52.9,29.81,North,0,0.0,0.0,79,0.00,,,0.00,WUHU216HW,2013-10-19 23:25:00,
2013-10-19 19:27:00,59.4,52.9,29.81,North,0,0.0,0.0,79,0.00,,,0.00,WUHU216HW,2013-10-19 23:27:00,
2013-10-19 19:28:00,59.4,52.9,29.81,North,0,0.0,0.0,79,0.00,,,0.00,WUHU216HW,2013-10-19 23:28:00,
2013-10-19 19:29:00,59.4,52.9,29.81,North,0,0.0,0.0,79,0.00,,,0.00,WUHU216HW,2013-10-19 23:29:00,
2013-10-19 19:30:00,59.4,52.9,29.81,North,0,0.0,0.0,79,0.00,,,0.00,WUHU216HW,2013-10-19 23:30:00,
2013-10-19 19:32:00,59.4,52.9,29.80,North,0,0.0,0.0,79,0.00,,,0.00,WUHU216HW,2013-10-19 23:32:00,
2013-10-19 19:33:00,59.4,52.9,29.80,North,0,0.0,0.0,79,0.00,,,0.00,WUHU216HW,2013-10-19 23:33:00,
2013-10-19 19:34:00,59.4,52.9,29.80,North,0,0.0,0.0,79,0.00,,,0.00,WUHU216HW,2013-10-19 23:34:00,
2013-10-19 19:36:00,59.4,53.3,29.80,North,0,0.0,0.0,80,0.00,,,0.00,WUHU216HW,2013-10-19 23:36:00,
2013-10-19 19:37:00,59.4,52.9,29.80,North,0,0.0,0.0,79,0.00,,,0.00,WUHU216HW,2013-10-19 23:37:00,
2013-10-19 19:38:00,59.4,53.3,29.80,North,0,0.0,0.0,80,0.00,,,0.00,WUHU216HW,2013-10-19 23:38:00,
2013-10-19 19:39:00,59.4,53.3,29.80,North,0,0.0,0.0,80,0.00,,,0.00,WUHU216HW,2013-10-19 23:39:00,
2013-10-19 19:40:00,59.4,53.3,29.80,North,0,0.0,0.0,80,0.00,,,0.00,WUHU216HW,2013-10-19 23:40:00,
2013-10-19 19:41:00,59.4,53.3,29.80,North,0,0.0,0.0,80,0.00,,,0.00,WUHU216HW,2013-10-19 23:41:00,
2013-10-19 19:42:00,59.4,53.3,29.81,North,0,0.0,0.0,80,0.00,,,0.00,WUHU216HW,2013-10-19 23:42:00,
2013-10-19 19:43:00,59.4,53.3,29.81,North,0,0.0,0.0,80,0.00,,,0.00,WUHU216HW,2013-10-19 23:43:00,
2013-10-19 19:44:00,59.4,53.9,29.81,North,0,0.0,0.0,82,0.00,,,0.00,WUHU216HW,2013-10-19 23:44:00,
2013-10-19 19:45:00,59.4,53.7,29.81,North,0,0.0,0.0,81,0.00,,,0.00,WUHU216HW,2013-10-19 23:45:00,
2013-10-19 19:47:00,59.4,53.9,29.81,North,0,0.0,0.0,82,0.00,,,0.00,WUHU216HW,2013-10-19 23:47:00,
2013-10-19 19:48:00,59.4,53.9,29.81,North,0,0.0,0.0,82,0.00,,,0.00,WUHU216HW,2013-10-19 23:48:00,
2013-10-19 19:49:00,59.4,53.9,29.81,North,0,0.0,0.0,82,0.00,,,0.00,WUHU216HW,2013-10-19 23:49:00,
2013-10-19 19:50:00,59.6,54.1,29.81,North,0,0.0,0.0,82,0.00,,,0.00,WUHU216HW,2013-10-19 23:50:00,
2013-10-19 19:51:00,59.4,53.7,29.81,North,0,0.0,0.0,81,0.00,,,0.00,WUHU216HW,2013-10-19 23:51:00,
2013-10-19 19:53:00,59.6,54.1,29.80,North,0,0.0,0.0,82,0.00,,,0.00,WUHU216HW,2013-10-19 23:53:00,
2013-10-19 19:54:00,59.4,53.9,29.80,North,0,0.0,0.0,82,0.00,,,0.00,WUHU216HW,2013-10-19 23:54:00,
2013-10-19 19:55:00,59.4,53.9,29.80,North,0,0.0,0.0,82,0.00,,,0.00,WUHU216HW,2013-10-19 23:55:00,
2013-10-19 19:56:00,59.4,53.9,29.81,North,0,0.0,0.0,82,0.00,,,0.00,WUHU216HW,2013-10-19 23:56:00,
2013-10-19 19:58:00,59.4,53.9,29.81,North,0,0.0,0.0,82,0.00,,,0.00,WUHU216HW,2013-10-19 23:58:00,
2013-10-19 19:59:00,59.4,53.9,29.80,North,0,0.0,0.0,82,0.00,,,0.00,WUHU216HW,2013-10-19 23:59:00,
2013-10-19 20:00:00,59.4,53.9,29.80,North,0,0.0,0.0,82,0.00,,,0.00,WUHU216HW,2013-10-20 00:00:00,
2013-10-19 20:01:00,59.4,53.9,29.80,North,0,0.0,0.0,82,0.00,,,0.00,WUHU216HW,2013-10-20 00:01:00,
2013-10-19 20:03:00,59.4,53.9,29.80,North,0,0.0,0.0,82,0.00,,,0.00,WUHU216HW,2013-10-20 00:03:00,
2013-10-19 20:04:00,59.4,53.9,29.80,North,0,0.0,0.0,82,0.00,,,0.00,WUHU216HW,2013-10-20 00:04:00,
2013-10-19 20:05:00,59.4,53.9,29.80,North,0,0.0,0.0,82,0.00,,,0.00,WUHU216HW,2013-10-20 00:05:00,
2013-10-19 20:06:00,59.4,53.9,29.80,North,0,0.0,0.0,82,0.00,,,0.00,WUHU216HW,2013-10-20 00:06:00,
2013-10-19 20:08:00,59.4,53.9,29.80,North,0,0.0,0.0,82,0.00,,,0.00,WUHU216HW,2013-10-20 00:08:00,
2013-10-19 20:09:00,59.4,53.9,29.80,North,0,0.0,0.0,82,0.00,,,0.00,WUHU216HW,2013-10-20 00:09:00,
2013-10-19 20:10:00,59.4,54.3,29.80,North,0,0.0,0.0,83,0.00,,,0.00,WUHU216HW,2013-10-20 00:10:00,
2013-10-19 20:12:00,59.4,54.3,29.80,North,0,0.0,0.0,83,0.00,,,0.00,WUHU216HW,2013-10-20 00:12:00,
2013-10-19 20:13:00,59.4,53.9,29.80,North,0,0.0,0.0,82,0.00,,,0.00,WUHU216HW,2013-10-20 00:13:00,
2013-10-19 20:15:00,59.4,54.3,29.80,North,0,0.0,0.0,83,0.00,,,0.00,WUHU216HW,2013-10-20 00:15:00,
2013-10-19 20:16:00,59.6,54.5,29.80,North,0,0.0,0.0,83,0.00,,,0.00,WUHU216HW,2013-10-20 00:16:00,
2013-10-19 20:17:00,59.4,54.3,29.80,North,0,0.0,0.0,83,0.00,,,0.00,WUHU216HW,2013-10-20 00:17:00,
2013-10-19 20:19:00,59.4,54.3,29.80,North,0,0.0,0.0,83,0.00,,,0.00,WUHU216HW,2013-10-20 00:19:00,
2013-10-19 20:20:00,59.6,54.5,29.80,North,0,0.0,0.0,83,0.00,,,0.00,WUHU216HW,2013-10-20 00:20:00,
2013-10-19 20:21:00,59.6,54.5,29.79,North,0,0.0,0.0,83,0.00,,,0.00,WUHU216HW,2013-10-20 00:21:00,
2013-10-19 20:22:00,59.6,54.7,29.79,North,0,0.0,0.0,84,0.00,,,0.00,WUHU216HW,2013-10-20 00:22:00,
2013-10-19 20:23:00,59.6,54.7,29.79,North,0,0.0,0.0,84,0.00,,,0.00,WUHU216HW,2013-10-20 00:23:00,
2013-10-19 20:24:00,59.6,55.1,29.79,North,0,0.0,0.0,85,0.00,,,0.00,WUHU216HW,2013-10-20 00:24:00,
2013-10-19 20:25:00,59.6,54.7,29.79,North,0,0.0,0.0,84,0.00,,,0.00,WUHU216HW,2013-10-20 00:25:00,
2013-10-19 20:26:00,59.6,54.7,29.79,North,0,0.0,0.0,84,0.00,,,0.00,WUHU216HW,2013-10-20 00:26:00,
2013-10-19 20:28:00,59.8,54.9,29.80,North,0,0.0,0.0,84,0.00,,,0.00,WUHU216HW,2013-10-20 00:28:00,
2013-10-19 20:29:00,59.6,54.5,29.80,North,0,0.0,0.0,83,0.00,,,0.00,WUHU216HW,2013-10-20 00:29:00,
2013-10-19 20:30:00,59.8,54.9,29.80,North,0,0.0,0.0,84,0.00,,,0.00,WUHU216HW,2013-10-20 00:30:00,
2013-10-19 20:31:00,59.8,54.9,29.80,North,0,0.0,0.0,84,0.00,,,0.00,WUHU216HW,2013-10-20 00:31:00,
2013-10-19 20:33:00,59.8,54.9,29.79,North,0,0.0,0.0,84,0.00,,,0.00,WUHU216HW,2013-10-20 00:33:00,
2013-10-19 20:34:00,59.8,54.9,29.79,North,0,0.0,0.0,84,0.00,,,0.00,WUHU216HW,2013-10-20 00:34:00,
2013-10-19 20:35:00,59.8,54.6,29.80,North,0,0.0,0.0,83,0.00,,,0.00,WUHU216HW,2013-10-20 00:35:00,
2013-10-19 20:36:00,59.8,54.6,29.80,North,0,0.0,0.0,83,0.00,,,0.00,WUHU216HW,2013-10-20 00:36:00,
2013-10-19 20:37:00,59.8,54.6,29.79,North,0,0.0,0.0,83,0.00,,,0.00,WUHU216HW,2013-10-20 00:37:00,
2013-10-19 20:39:00,59.8,54.6,29.79,North,0,0.0,0.0,83,0.00,,,0.00,WUHU216HW,2013-10-20 00:39:00,
2013-10-19 20:41:00,59.8,54.9,29.79,North,0,0.0,0.0,84,0.00,,,0.00,WUHU216HW,2013-10-20 00:41:00,
2013-10-19 20:42:00,59.8,54.9,29.79,North,0,0.0,0.0,84,0.00,,,0.00,WUHU216HW,2013-10-20 00:42:00,
2013-10-19 20:44:00,59.8,54.9,29.79,North,0,0.0,0.0,84,0.00,,,0.00,WUHU216HW,2013-10-20 00:44:00,
2013-10-19 20:46:00,59.8,54.9,29.79,North,0,0.0,0.0,84,0.00,,,0.00,WUHU216HW,2013-10-20 00:46:00,
2013-10-19 20:47:00,59.8,54.9,29.78,North,0,0.0,0.0,84,0.00,,,0.00,WUHU216HW,2013-10-20 00:47:00,
2013-10-19 20:49:00,59.8,54.9,29.78,North,0,0.0,0.0,84,0.00,,,0.00,WUHU216HW,2013-10-20 00:49:00,
2013-10-19 20:50:00,59.8,55.3,29.78,North,0,0.0,0.0,85,0.00,,,0.00,WUHU216HW,2013-10-20 00:50:00,
2013-10-19 20:51:00,59.8,54.9,29.78,North,0,0.0,0.0,84,0.00,,,0.00,WUHU216HW,2013-10-20 00:51:00,
2013-10-19 20:52:00,59.8,55.3,29.78,North,0,0.0,0.0,85,0.00,,,0.00,WUHU216HW,2013-10-20 00:52:00,
2013-10-19 20:55:00,59.9,55.4,29.78,North,0,0.0,0.0,85,0.00,,,0.00,WUHU216HW,2013-10-20 00:55:00,
2013-10-19 20:56:00,59.9,55.4,29.78,North,0,0.0,0.0,85,0.00,,,0.00,WUHU216HW,2013-10-20 00:56:00,
2013-10-19 20:57:00,59.9,55.4,29.78,North,0,0.0,0.0,85,0.00,,,0.00,WUHU216HW,2013-10-20 00:57:00,
2013-10-19 20:58:00,59.9,55.4,29.78,North,0,0.0,0.0,85,0.00,,,0.00,WUHU216HW,2013-10-20 00:58:00,
2013-10-19 21:00:00,59.9,55.4,29.78,North,0,0.0,0.0,85,0.00,,,0.00,WUHU216HW,2013-10-20 01:00:00,
2013-10-19 21:01:00,60.1,55.6,29.78,North,0,0.0,0.0,85,0.00,,,0.00,WUHU216HW,2013-10-20 01:01:00,
2013-10-19 21:02:00,60.1,55.6,29.78,North,0,0.0,0.0,85,0.00,,,0.00,WUHU216HW,2013-10-20 01:02:00,
2013-10-19 21:03:00,60.1,56.0,29.78,North,0,0.0,0.0,86,0.00,,,0.00,WUHU216HW,2013-10-20 01:03:00,
2013-10-19 21:05:00,60.1,55.6,29.78,North,0,0.0,0.0,85,0.00,,,0.00,WUHU216HW,2013-10-20 01:05:00,
2013-10-19 21:06:00,60.1,55.6,29.78,North,0,0.0,0.0,85,0.00,,,0.00,WUHU216HW,2013-10-20 01:06:00,
2013-10-19 21:07:00,60.1,56.0,29.78,North,0,0.0,0.0,86,0.00,,,0.00,WUHU216HW,2013-10-20 01:07:00,
2013-10-19 21:08:00,60.1,56.0,29.78,North,0,0.0,0.0,86,0.00,,,0.00,WUHU216HW,2013-10-20 01:08:00,
2013-10-19 21:10:00,60.1,56.0,29.78,North,0,0.0,0.0,86,0.00,,,0.00,WUHU216HW,2013-10-20 01:10:00,
2013-10-19 21:11:00,60.1,56.0,29.78,North,0,0.0,0.0,86,0.00,,,0.00,WUHU216HW,2013-10-20 01:11:00,
2013-10-19 21:12:00,60.3,56.2,29.78,North,0,0.0,0.0,86,0.00,,,0.00,WUHU216HW,2013-10-20 01:12:00,
2013-10-19 21:13:00,60.3,56.4,29.78,North,0,0.0,0.0,87,0.00,,,0.00,WUHU216HW,2013-10-20 01:13:00,
2013-10-19 21:15:00,60.3,56.4,29.78,North,0,0.0,0.0,87,0.00,,,0.00,WUHU216HW,2013-10-20 01:15:00,
2013-10-19 21:16:00,60.3,56.4,29.78,North,0,0.0,0.0,87,0.00,,,0.00,WUHU216HW,2013-10-20 01:16:00,
2013-10-19 21:17:00,60.3,56.2,29.78,North,0,0.0,0.0,86,0.00,,,0.00,WUHU216HW,2013-10-20 01:17:00,
2013-10-19 21:18:00,60.3,56.2,29.78,North,0,0.0,0.0,86,0.00,,,0.00,WUHU216HW,2013-10-20 01:18:00,
2013-10-19 21:21:00,60.5,56.4,29.78,North,0,0.0,0.0,86,0.00,,,0.00,WUHU216HW,2013-10-20 01:21:00,
2013-10-19 21:22:00,60.5,56.6,29.78,North,0,0.0,0.0,87,0.00,,,0.00,WUHU216HW,2013-10-20 01:22:00,
2013-10-19 21:23:00,60.5,56.6,29.77,North,0,0.0,0.0,87,0.00,,,0.00,WUHU216HW,2013-10-20 01:23:00,
2013-10-19 21:24:00,60.5,56.6,29.77,North,0,0.0,0.0,87,0.00,,,0.00,WUHU216HW,2013-10-20 01:24:00,
2013-10-19 21:26:00,60.5,56.6,29.77,North,0,0.0,0.0,87,0.00,,,0.00,WUHU216HW,2013-10-20 01:26:00,
2013-10-19 21:28:00,60.5,56.6,29.77,North,0,0.0,0.0,87,0.00,,,0.00,WUHU216HW,2013-10-20 01:28:00,
2013-10-19 21:29:00,60.5,56.6,29.77,North,0,0.0,0.0,87,0.00,,,0.00,WUHU216HW,2013-10-20 01:29:00,
2013-10-19 21:30:00,60.5,56.6,29.77,North,0,0.0,0.0,87,0.00,,,0.00,WUHU216HW,2013-10-20 01:30:00,
2013-10-19 21:31:00,60.5,56.6,29.78,North,0,0.0,0.0,87,0.00,,,0.00,WUHU216HW,2013-10-20 01:31:00,
2013-10-19 21:33:00,60.5,56.4,29.78,North,0,0.0,0.0,86,0.00,,,0.00,WUHU216HW,2013-10-20 01:33:00,
2013-10-19 21:34:00,60.5,56.4,29.78,North,0,0.0,0.0,86,0.00,,,0.00,WUHU216HW,2013-10-20 01:34:00,
2013-10-19 21:35:00,60.5,56.4,29.78,North,0,0.0,0.0,86,0.00,,,0.00,WUHU216HW,2013-10-20 01:35:00,
2013-10-19 21:37:00,60.5,56.6,29.78,North,0,0.0,0.0,87,0.00,,,0.00,WUHU216HW,2013-10-20 01:37:00,
2013-10-19 21:38:00,60.5,56.6,29.78,North,0,0.0,0.0,87,0.00,,,0.00,WUHU216HW,2013-10-20 01:38:00,
2013-10-19 21:39:00,60.5,56.4,29.77,North,0,0.0,0.0,86,0.00,,,0.00,WUHU216HW,2013-10-20 01:39:00,
2013-10-19 21:40:00,60.5,56.6,29.77,North,0,0.0,0.0,87,0.00,,,0.00,WUHU216HW,2013-10-20 01:40:00,
2013-10-19 21:43:00,60.5,56.6,29.77,North,0,0.0,0.0,87,0.00,,,0.00,WUHU216HW,2013-10-20 01:43:00,
2013-10-19 21:44:00,60.5,56.6,29.77,North,0,0.0,0.0,87,0.00,,,0.00,WUHU216HW,2013-10-20 01:44:00,
2013-10-19 21:45:00,60.5,56.6,29.77,North,0,0.0,0.0,87,0.00,,,0.00,WUHU216HW,2013-10-20 01:45:00,
2013-10-19 21:48:00,60.5,56.6,29.78,North,0,0.0,0.0,87,0.00,,,0.00,WUHU216HW,2013-10-20 01:48:00,
2013-10-19 21:49:00,60.5,56.6,29.78,North,0,0.0,0.0,87,0.00,,,0.00,WUHU216HW,2013-10-20 01:49:00,
2013-10-19 21:50:00,60.5,56.6,29.78,North,0,0.0,0.0,87,0.00,,,0.00,WUHU216HW,2013-10-20 01:50:00,
2013-10-19 21:53:00,60.5,56.6,29.78,North,0,0.0,0.0,87,0.00,,,0.00,WUHU216HW,2013-10-20 01:53:00,
2013-10-19 21:54:00,60.5,56.6,29.78,North,0,0.0,0.0,87,0.00,,,0.00,WUHU216HW,2013-10-20 01:54:00,
2013-10-19 21:55:00,60.5,56.6,29.78,North,0,0.0,0.0,87,0.00,,,0.00,WUHU216HW,2013-10-20 01:55:00,
2013-10-19 21:56:00,60.5,56.6,29.78,North,0,0.0,0.0,87,0.00,,,0.00,WUHU216HW,2013-10-20 01:56:00,
2013-10-19 21:58:00,60.5,56.6,29.78,North,0,0.0,0.0,87,0.00,,,0.00,WUHU216HW,2013-10-20 01:58:00,
2013-10-19 21:59:00,60.5,56.6,29.79,North,0,0.0,0.0,87,0.00,,,0.00,WUHU216HW,2013-10-20 01:59:00,
2013-10-19 22:00:00,60.5,56.6,29.79,North,0,0.0,0.0,87,0.00,,,0.00,WUHU216HW,2013-10-20 02:00:00,
2013-10-19 22:01:00,60.5,56.6,29.79,North,0,0.0,0.0,87,0.00,,,0.00,WUHU216HW,2013-10-20 02:01:00,
2013-10-19 22:03:00,60.5,56.6,29.78,North,0,0.0,0.0,87,0.00,,,0.00,WUHU216HW,2013-10-20 02:03:00,
2013-10-19 22:04:00,60.5,56.6,29.78,North,0,0.0,0.0,87,0.00,,,0.00,WUHU216HW,2013-10-20 02:04:00,
2013-10-19 22:05:00,60.5,56.6,29.78,North,0,0.0,0.0,87,0.00,,,0.00,WUHU216HW,2013-10-20 02:05:00,
2013-10-19 22:06:00,60.5,56.6,29.78,North,0,0.0,0.0,87,0.00,,,0.00,WUHU216HW,2013-10-20 02:06:00,
2013-10-19 22:08:00,60.5,56.6,29.78,North,0,0.0,0.0,87,0.00,,,0.00,WUHU216HW,2013-10-20 02:08:00,
2013-10-19 22:09:00,60.5,56.6,29.78,North,0,0.0,0.0,87,0.00,,,0.00,WUHU216HW,2013-10-20 02:09:00,
2013-10-19 22:10:00,60.7,56.8,29.78,North,0,0.0,0.0,87,0.00,,,0.00,WUHU216HW,2013-10-20 02:10:00,
2013-10-19 22:11:00,60.7,56.8,29.78,North,0,0.0,0.0,87,0.00,,,0.00,WUHU216HW,2013-10-20 02:11:00,
2013-10-19 22:12:00,60.5,56.6,29.78,North,0,0.0,0.0,87,0.00,,,0.00,WUHU216HW,2013-10-20 02:12:00,
2013-10-19 22:13:00,60.5,56.6,29.78,North,0,0.0,0.0,87,0.00,,,0.00,WUHU216HW,2013-10-20 02:13:00,
2013-10-19 22:15:00,60.5,56.6,29.78,North,0,0.0,0.0,87,0.00,,,0.00,WUHU216HW,2013-10-20 02:15:00,
2013-10-19 22:16:00,60.7,56.8,29.78,North,0,0.0,0.0,87,0.00,,,0.00,WUHU216HW,2013-10-20 02:16:00,
2013-10-19 22:17:00,60.5,56.6,29.78,North,0,0.0,0.0,87,0.00,,,0.00,WUHU216HW,2013-10-20 02:17:00,
2013-10-19 22:18:00,60.5,56.6,29.78,North,0,0.0,0.0,87,0.00,,,0.00,WUHU216HW,2013-10-20 02:18:00,
2013-10-19 22:20:00,60.7,56.8,29.78,North,0,0.0,0.0,87,0.00,,,0.00,WUHU216HW,2013-10-20 02:20:00,
2013-10-19 22:21:00,60.7,56.8,29.78,North,0,0.0,0.0,87,0.00,,,0.00,WUHU216HW,2013-10-20 02:21:00,
2013-10-19 22:22:00,60.7,56.8,29.78,North,0,0.0,0.0,87,0.00,,,0.00,WUHU216HW,2013-10-20 02:22:00,
2013-10-19 22:24:00,60.7,56.8,29.78,North,0,0.0,0.0,87,0.00,,,0.00,WUHU216HW,2013-10-20 02:24:00,
2013-10-19 22:25:00,60.7,56.8,29.78,North,0,0.0,0.0,87,0.00,,,0.00,WUHU216HW,2013-10-20 02:25:00,
2013-10-19 22:26:00,60.7,56.8,29.78,North,0,0.0,0.0,87,0.00,,,0.00,WUHU216HW,2013-10-20 02:26:00,
2013-10-19 22:27:00,60.7,56.8,29.78,North,0,0.0,0.0,87,0.00,,,0.00,WUHU216HW,2013-10-20 02:27:00,
2013-10-19 22:28:00,60.7,56.8,29.78,North,0,0.0,0.0,87,0.00,,,0.00,WUHU216HW,2013-10-20 02:28:00,
2013-10-19 22:29:00,60.8,57.0,29.78,North,0,0.0,0.0,87,0.00,,,0.00,WUHU216HW,2013-10-20 02:29:00,
2013-10-19 22:30:00,60.7,56.8,29.78,North,0,0.0,0.0,87,0.00,,,0.00,WUHU216HW,2013-10-20 02:30:00,
2013-10-19 22:31:00,60.7,56.8,29.78,North,0,0.0,0.0,87,0.00,,,0.00,WUHU216HW,2013-10-20 02:31:00,
2013-10-19 22:32:00,60.7,56.8,29.78,North,0,0.0,0.0,87,0.00,,,0.00,WUHU216HW,2013-10-20 02:32:00,
2013-10-19 22:33:00,60.8,57.0,29.78,North,0,0.0,0.0,87,0.00,,,0.00,WUHU216HW,2013-10-20 02:33:00,
2013-10-19 22:34:00,60.8,57.3,29.78,North,0,0.0,0.0,88,0.00,,,0.00,WUHU216HW,2013-10-20 02:34:00,
2013-10-19 22:35:00,60.8,57.3,29.78,North,0,0.0,0.0,88,0.00,,,0.00,WUHU216HW,2013-10-20 02:35:00,
2013-10-19 22:36:00,60.8,57.3,29.78,North,0,0.0,0.0,88,0.00,,,0.00,WUHU216HW,2013-10-20 02:36:00,
2013-10-19 22:38:00,60.8,57.0,29.78,North,0,0.0,0.0,87,0.00,,,0.00,WUHU216HW,2013-10-20 02:38:00,
2013-10-19 22:39:00,60.8,57.0,29.78,North,0,0.0,0.0,87,0.00,,,0.00,WUHU216HW,2013-10-20 02:39:00,
2013-10-19 22:41:00,60.8,57.0,29.78,North,0,0.0,0.0,87,0.00,,,0.00,WUHU216HW,2013-10-20 02:41:00,
2013-10-19 22:44:00,60.8,57.0,29.78,North,0,0.0,0.0,87,0.00,,,0.00,WUHU216HW,2013-10-20 02:44:00,
2013-10-19 22:46:00,60.8,57.0,29.78,North,0,0.0,0.0,87,0.00,,,0.00,WUHU216HW,2013-10-20 02:46:00,
2013-10-19 22:47:00,60.8,57.0,29.78,North,0,0.0,0.0,87,0.00,,,0.00,WUHU216HW,2013-10-20 02:47:00,
2013-10-19 22:49:00,60.8,57.0,29.78,North,0,0.0,0.0,87,0.00,,,0.00,WUHU216HW,2013-10-20 02:49:00,
2013-10-19 22:51:00,60.8,57.0,29.78,North,0,0.0,0.0,87,0.00,,,0.00,WUHU216HW,2013-10-20 02:51:00,
2013-10-19 22:52:00,60.8,57.0,29.78,North,0,0.0,0.0,87,0.00,,,0.00,WUHU216HW,2013-10-20 02:52:00,
2013-10-19 22:54:00,60.8,57.0,29.78,North,0,0.0,0.0,87,0.00,,,0.00,WUHU216HW,2013-10-20 02:54:00,
2013-10-19 22:55:00,60.8,57.0,29.78,North,0,0.0,0.0,87,0.00,,,0.00,WUHU216HW,2013-10-20 02:55:00,
2013-10-19 22:56:00,60.8,57.0,29.78,North,0,0.0,0.0,87,0.00,,,0.00,WUHU216HW,2013-10-20 02:56:00,
2013-10-19 22:57:00,60.8,57.3,29.78,North,0,0.0,0.0,88,0.00,,,0.00,WUHU216HW,2013-10-20 02:57:00,
2013-10-19 22:59:00,60.8,57.3,29.78,North,0,0.0,0.0,88,0.00,,,0.00,WUHU216HW,2013-10-20 02:59:00,
2013-10-19 23:01:00,60.8,57.3,29.78,North,0,0.0,0.0,88,0.00,,,0.00,WUHU216HW,2013-10-20 03:01:00,
2013-10-19 23:02:00,60.8,57.3,29.78,North,0,0.0,0.0,88,0.00,,,0.00,WUHU216HW,2013-10-20 03:02:00,
2013-10-19 23:03:00,60.8,57.3,29.78,North,0,0.0,0.0,88,0.00,,,0.00,WUHU216HW,2013-10-20 03:03:00,
2013-10-19 23:04:00,60.8,57.3,29.78,North,0,0.0,0.0,88,0.00,,,0.00,WUHU216HW,2013-10-20 03:04:00,
2013-10-19 23:06:00,60.8,57.3,29.78,North,0,0.0,0.0,88,0.00,,,0.00,WUHU216HW,2013-10-20 03:06:00,
2013-10-19 23:07:00,60.8,57.3,29.78,North,0,0.0,0.0,88,0.00,,,0.00,WUHU216HW,2013-10-20 03:07:00,
2013-10-19 23:08:00,60.8,57.3,29.78,North,0,0.0,0.0,88,0.00,,,0.00,WUHU216HW,2013-10-20 03:08:00,
2013-10-19 23:09:00,60.8,57.3,29.78,North,0,0.0,0.0,88,0.00,,,0.00,WUHU216HW,2013-10-20 03:09:00,
2013-10-19 23:10:00,60.8,57.3,29.78,North,0,0.0,0.0,88,0.00,,,0.00,WUHU216HW,2013-10-20 03:10:00,
2013-10-19 23:11:00,61.0,57.8,29.78,North,0,0.0,0.0,89,0.00,,,0.00,WUHU216HW,2013-10-20 03:11:00,
2013-10-19 23:12:00,61.0,57.8,29.78,North,0,0.0,0.0,89,0.00,,,0.00,WUHU216HW,2013-10-20 03:12:00,
2013-10-19 23:13:00,61.0,57.8,29.78,North,0,0.0,0.0,89,0.00,,,0.00,WUHU216HW,2013-10-20 03:13:00,
2013-10-19 23:14:00,61.0,57.8,29.78,North,0,0.0,0.0,89,0.00,,,0.00,WUHU216HW,2013-10-20 03:14:00,
2013-10-19 23:15:00,61.0,57.8,29.77,North,0,0.0,0.0,89,0.00,,,0.00,WUHU216HW,2013-10-20 03:15:00,
2013-10-19 23:16:00,61.0,57.8,29.77,North,0,0.0,0.0,89,0.00,,,0.00,WUHU216HW,2013-10-20 03:16:00,
2013-10-19 23:18:00,61.0,57.8,29.77,North,0,0.0,0.0,89,0.00,,,0.00,WUHU216HW,2013-10-20 03:18:00,
2013-10-19 23:19:00,61.0,57.8,29.77,North,0,0.0,0.0,89,0.00,,,0.00,WUHU216HW,2013-10-20 03:19:00,
2013-10-19 23:20:00,61.0,57.8,29.77,North,0,0.0,0.0,89,0.00,,,0.00,WUHU216HW,2013-10-20 03:20:00,
2013-10-19 23:21:00,61.0,57.8,29.77,North,0,0.0,0.0,89,0.00,,,0.00,WUHU216HW,2013-10-20 03:21:00,
2013-10-19 23:23:00,60.8,57.6,29.77,North,0,0.0,0.0,89,0.00,,,0.00,WUHU216HW,2013-10-20 03:23:00,
2013-10-19 23:24:00,60.8,57.6,29.77,North,0,0.0,0.0,89,0.00,,,0.00,WUHU216HW,2013-10-20 03:24:00,
2013-10-19 23:25:00,60.8,57.6,29.77,North,0,0.0,0.0,89,0.00,,,0.00,WUHU216HW,2013-10-20 03:25:00,
2013-10-19 23:26:00,60.8,57.6,29.77,North,0,0.0,0.0,89,0.00,,,0.00,WUHU216HW,2013-10-20 03:26:00,
2013-10-19 23:28:00,60.8,57.6,29.77,North,0,0.0,0.0,89,0.00,,,0.00,WUHU216HW,2013-10-20 03:28:00,
2013-10-19 23:29:00,60.8,57.6,29.77,North,0,0.0,0.0,89,0.00,,,0.00,WUHU216HW,2013-10-20 03:29:00,
2013-10-19 23:30:00,60.8,57.6,29.77,North,0,0.0,0.0,89,0.00,,,0.00,WUHU216HW,2013-10-20 03:30:00,
2013-10-19 23:31:00,60.8,57.6,29.77,North,0,0.0,0.0,89,0.00,,,0.00,WUHU216HW,2013-10-20 03:31:00,
2013-10-19 23:32:00,60.7,57.4,29.77,North,0,0.0,0.0,89,0.00,,,0.00,WUHU216HW,2013-10-20 03:32:00,
2013-10-19 23:34:00,60.7,57.2,29.77,North,0,0.0,0.0,88,0.00,,,0.00,WUHU216HW,2013-10-20 03:34:00,
2013-10-19 23:35:00,60.5,57.2,29.77,North,0,0.0,0.0,89,0.00,,,0.00,WUHU216HW,2013-10-20 03:35:00,
2013-10-19 23:36:00,60.5,57.2,29.77,North,0,0.0,0.0,89,0.00,,,0.00,WUHU216HW,2013-10-20 03:36:00,
2013-10-19 23:37:00,60.5,57.2,29.77,North,0,0.0,0.0,89,0.00,,,0.00,WUHU216HW,2013-10-20 03:37:00,
2013-10-19 23:39:00,60.3,57.1,29.77,North,0,0.0,0.0,89,0.00,,,0.00,WUHU216HW,2013-10-20 03:39:00,
2013-10-19 23:40:00,60.3,57.1,29.77,North,0,0.0,0.0,89,0.00,,,0.00,WUHU216HW,2013-10-20 03:40:00,
2013-10-19 23:42:00,60.3,57.1,29.77,North,0,0.0,0.0,89,0.00,,,0.00,WUHU216HW,2013-10-20 03:42:00,
2013-10-19 23:43:00,60.1,56.9,29.78,North,0,0.0,0.0,89,0.00,,,0.00,WUHU216HW,2013-10-20 03:43:00,
2013-10-19 23:45:00,60.1,56.9,29.78,North,0,0.0,0.0,89,0.00,,,0.00,WUHU216HW,2013-10-20 03:45:00,
2013-10-19 23:46:00,60.1,56.9,29.78,North,0,0.0,0.0,89,0.00,,,0.00,WUHU216HW,2013-10-20 03:46:00,
2013-10-19 23:47:00,60.1,56.9,29.77,North,0,0.0,0.0,89,0.00,,,0.00,WUHU216HW,2013-10-20 03:47:00,
2013-10-19 23:48:00,60.1,56.9,29.77,North,0,0.0,0.0,89,0.00,,,0.00,WUHU216HW,2013-10-20 03:48:00,
2013-10-19 23:50:00,60.1,56.9,29.77,North,0,0.0,0.0,89,0.00,,,0.00,WUHU216HW,2013-10-20 03:50:00,
2013-10-19 23:51:00,60.1,56.9,29.77,North,0,0.0,0.0,89,0.00,,,0.00,WUHU216HW,2013-10-20 03:51:00,
2013-10-19 23:52:00,60.1,56.9,29.77,North,0,0.0,0.0,89,0.00,,,0.00,WUHU216HW,2013-10-20 03:52:00,
2013-10-19 23:54:00,60.1,56.9,29.78,North,0,0.0,0.0,89,0.00,,,0.00,WUHU216HW,2013-10-20 03:54:00,
2013-10-19 23:55:00,60.1,56.9,29.77,North,0,0.0,0.0,89,0.00,,,0.00,WUHU216HW,2013-10-20 03:55:00,
2013-10-19 23:56:00,60.1,56.9,29.78,North,0,0.0,0.0,89,0.00,,,0.00,WUHU216HW,2013-10-20 03:56:00,
2013-10-19 23:57:00,60.1,56.9,29.78,North,0,0.0,0.0,89,0.00,,,0.00,WUHU216HW,2013-10-20 03:57:00,
2013-10-19 23:59:00,60.1,56.9,29.78,North,0,0.0,0.0,89,0.00,,,0.00,WUHU216HW,2013-10-20 03:59:00,